Time,TemperatureF,DewpointF,PressureIn,WindDirection,WindDirectionDegrees,WindSpeedMPH,WindSpeedGustMPH,Humidity,HourlyPrecipIn,Conditions,Clouds,dailyrainin,SoftwareType,DateUTC
2013-04-08 00:00:00,51.0,35.9,30.03,SSE,158,0.0,0.0,56,0.00,,SKC,0.00,VWS V13.01,2013-04-08 04:00:00,
2013-04-08 00:01:00,50.9,35.8,30.03,SE,136,0.0,0.0,56,0.00,,SKC,0.00,VWS V13.01,2013-04-08 04:01:00,
2013-04-08 00:02:00,50.9,35.8,30.03,SSW,204,0.0,0.0,56,0.00,,SKC,0.00,VWS V13.01,2013-04-08 04:02:00,
2013-04-08 00:03:00,50.9,35.8,30.03,SSW,204,0.0,0.0,56,0.00,,SKC,0.00,VWS V13.01,2013-04-08 04:03:00,
2013-04-08 00:04:00,50.9,36.2,30.03,ESE,114,1.1,1.1,57,0.00,,SKC,0.00,VWS V13.01,2013-04-08 04:04:00,
2013-04-08 00:05:00,50.9,36.2,30.03,ESE,114,1.1,1.1,57,0.00,,SKC,0.00,VWS V13.01,2013-04-08 04:05:00,
2013-04-08 00:06:00,50.9,36.2,30.03,SSE,158,0.0,1.1,57,0.00,,SKC,0.00,VWS V13.01,2013-04-08 04:06:00,
2013-04-08 00:07:00,50.7,36.0,30.03,SSE,158,0.0,0.0,57,0.00,,SKC,0.00,VWS V13.01,2013-04-08 04:07:00,
2013-04-08 00:08:00,50.7,36.0,30.03,SSE,158,0.0,0.0,57,0.00,,SKC,0.00,VWS V13.01,2013-04-08 04:08:00,
2013-04-08 00:09:00,50.7,36.0,30.03,East,91,0.0,0.0,57,0.00,,SKC,0.00,VWS V13.01,2013-04-08 04:09:00,
2013-04-08 00:10:00,50.7,36.0,30.03,East,91,0.0,0.0,57,0.00,,SKC,0.00,VWS V13.01,2013-04-08 04:10:00,
2013-04-08 00:11:00,50.7,36.0,30.04,North,1,0.0,0.0,57,0.00,,SKC,0.00,VWS V13.01,2013-04-08 04:11:00,
2013-04-08 00:12:00,50.7,36.0,30.03,North,1,0.0,0.0,57,0.00,,SKC,0.00,VWS V13.01,2013-04-08 04:12:00,
2013-04-08 00:13:00,50.5,35.8,30.03,North,1,0.0,0.0,57,0.00,,SKC,0.00,VWS V13.01,2013-04-08 04:13:00,
2013-04-08 00:14:00,50.5,35.8,30.03,North,1,0.0,0.0,57,0.00,,SKC,0.00,VWS V13.01,2013-04-08 04:14:00,
2013-04-08 00:15:00,50.3,35.7,30.03,ENE,68,0.8,0.8,57,0.00,,SKC,0.00,VWS V13.01,2013-04-08 04:15:00,
2013-04-08 00:16:00,50.3,35.7,30.03,ENE,68,0.8,0.8,57,0.00,,SKC,0.00,VWS V13.01,2013-04-08 04:16:00,
2013-04-08 00:17:00,50.3,35.7,30.03,SSE,158,0.0,0.8,57,0.00,,SKC,0.00,VWS V13.01,2013-04-08 04:17:00,
2013-04-08 00:18:00,50.3,35.7,30.03,SSE,158,0.0,0.0,57,0.00,,SKC,0.00,VWS V13.01,2013-04-08 04:18:00,
2013-04-08 00:19:00,50.1,35.5,30.03,SE,136,0.0,0.0,57,0.00,,SKC,0.00,VWS V13.01,2013-04-08 04:19:00,
2013-04-08 00:20:00,50.1,35.5,30.03,SE,136,0.0,0.0,57,0.00,,SKC,0.00,VWS V13.01,2013-04-08 04:20:00,
2013-04-08 00:21:00,50.1,35.9,30.03,SSW,204,1.3,1.3,58,0.00,,SKC,0.00,VWS V13.01,2013-04-08 04:21:00,
2013-04-08 00:22:00,50.1,35.9,30.03,SSW,204,1.3,1.3,58,0.00,,SKC,0.00,VWS V13.01,2013-04-08 04:22:00,
2013-04-08 00:23:00,50.1,35.9,30.03,SSW,204,1.3,1.3,58,0.00,,SKC,0.00,VWS V13.01,2013-04-08 04:23:00,
2013-04-08 00:24:00,49.8,35.6,30.03,SSE,158,1.3,1.3,58,0.00,,SKC,0.00,VWS V13.01,2013-04-08 04:24:00,
2013-04-08 00:25:00,49.8,35.6,30.03,SSE,158,1.3,1.3,58,0.00,,SKC,0.00,VWS V13.01,2013-04-08 04:25:00,
2013-04-08 00:26:00,49.8,35.6,30.03,East,91,1.7,1.7,58,0.00,,SKC,0.00,VWS V13.01,2013-04-08 04:26:00,
2013-04-08 00:27:00,49.8,35.6,30.04,East,91,1.7,1.7,58,0.00,,SKC,0.00,VWS V13.01,2013-04-08 04:27:00,
2013-04-08 00:28:00,49.8,35.6,30.04,SSE,158,0.0,1.7,58,0.00,,SKC,0.00,VWS V13.01,2013-04-08 04:28:00,
2013-04-08 00:29:00,49.8,35.6,30.03,SSE,158,0.0,0.0,58,0.00,,SKC,0.00,VWS V13.01,2013-04-08 04:29:00,
2013-04-08 00:30:00,49.8,36.1,30.03,SSE,158,0.0,0.0,59,0.00,,SKC,0.00,VWS V13.01,2013-04-08 04:30:00,
2013-04-08 00:31:00,49.8,36.1,30.04,SSE,158,0.0,0.0,59,0.00,,SKC,0.00,VWS V13.01,2013-04-08 04:31:00,
2013-04-08 00:32:00,49.8,36.1,30.04,SSE,158,2.6,2.6,59,0.00,,SKC,0.00,VWS V13.01,2013-04-08 04:32:00,
2013-04-08 00:33:00,49.8,36.1,30.04,SSE,158,2.6,2.6,59,0.00,,SKC,0.00,VWS V13.01,2013-04-08 04:33:00,
2013-04-08 00:34:00,49.8,36.1,30.04,ESE,114,2.4,2.6,59,0.00,,SKC,0.00,VWS V13.01,2013-04-08 04:34:00,
2013-04-08 00:35:00,49.8,36.1,30.04,ESE,114,2.4,2.4,59,0.00,,SKC,0.00,VWS V13.01,2013-04-08 04:35:00,
2013-04-08 00:36:00,49.8,36.1,30.04,SSE,158,4.9,4.9,59,0.00,,SKC,0.00,VWS V13.01,2013-04-08 04:36:00,
2013-04-08 00:37:00,50.1,36.3,30.04,SSE,158,4.9,4.9,59,0.00,,SKC,0.00,VWS V13.01,2013-04-08 04:37:00,
2013-04-08 00:38:00,50.1,36.3,30.04,SSE,158,4.9,4.9,59,0.00,,SKC,0.00,VWS V13.01,2013-04-08 04:38:00,
2013-04-08 00:39:00,50.1,36.3,30.04,NE,46,0.0,4.9,59,0.00,,SKC,0.00,VWS V13.01,2013-04-08 04:39:00,
2013-04-08 00:40:00,50.1,36.3,30.05,NE,46,0.0,0.0,59,0.00,,SKC,0.00,VWS V13.01,2013-04-08 04:40:00,
2013-04-08 00:41:00,50.3,36.5,30.04,NE,46,1.1,1.1,59,0.00,,SKC,0.00,VWS V13.01,2013-04-08 04:41:00,
2013-04-08 00:42:00,50.3,36.5,30.05,NE,46,1.1,1.1,59,0.00,,SKC,0.00,VWS V13.01,2013-04-08 04:42:00,
2013-04-08 00:43:00,50.3,36.5,30.05,South,181,2.4,2.4,59,0.00,,SKC,0.00,VWS V13.01,2013-04-08 04:43:00,
2013-04-08 00:44:00,50.3,36.5,30.05,South,181,2.4,2.4,59,0.00,,SKC,0.00,VWS V13.01,2013-04-08 04:44:00,
2013-04-08 00:45:00,50.5,36.7,30.05,East,91,1.1,1.1,59,0.00,,SKC,0.00,VWS V13.01,2013-04-08 04:45:00,
2013-04-08 00:46:00,50.5,36.7,30.05,East,91,1.1,1.1,59,0.00,,SKC,0.00,VWS V13.01,2013-04-08 04:46:00,
2013-04-08 00:47:00,50.5,36.7,30.05,SSE,158,2.4,2.4,59,0.00,,SKC,0.00,VWS V13.01,2013-04-08 04:47:00,
2013-04-08 00:48:00,50.5,36.7,30.05,SSE,158,2.4,2.4,59,0.00,,SKC,0.00,VWS V13.01,2013-04-08 04:48:00,
2013-04-08 00:49:00,50.5,36.7,30.05,SSW,204,0.0,2.4,59,0.00,,SKC,0.00,VWS V13.01,2013-04-08 04:49:00,
2013-04-08 00:50:00,50.5,36.7,30.05,SSW,204,0.0,0.0,59,0.00,,SKC,0.00,VWS V13.01,2013-04-08 04:50:00,
2013-04-08 00:51:00,50.3,36.5,30.04,SSW,204,0.0,0.0,59,0.00,,SKC,0.00,VWS V13.01,2013-04-08 04:51:00,
2013-04-08 00:52:00,50.3,36.5,30.05,East,91,0.0,0.0,59,0.00,,SKC,0.00,VWS V13.01,2013-04-08 04:52:00,
2013-04-08 00:53:00,50.3,36.5,30.05,East,91,0.0,0.0,59,0.00,,SKC,0.00,VWS V13.01,2013-04-08 04:53:00,
2013-04-08 00:54:00,50.3,36.5,30.04,NE,46,0.0,0.0,59,0.00,,SKC,0.00,VWS V13.01,2013-04-08 04:54:00,
2013-04-08 00:55:00,50.3,36.5,30.04,NE,46,0.0,0.0,59,0.00,,SKC,0.00,VWS V13.01,2013-04-08 04:55:00,
2013-04-08 00:56:00,50.3,36.5,30.04,NE,46,0.0,0.0,59,0.00,,SKC,0.00,VWS V13.01,2013-04-08 04:56:00,
2013-04-08 00:57:00,50.3,36.5,30.05,SE,136,0.0,0.0,59,0.00,,SKC,0.00,VWS V13.01,2013-04-08 04:57:00,
2013-04-08 00:58:00,50.3,36.5,30.05,SE,136,0.0,0.0,59,0.00,,SKC,0.00,VWS V13.01,2013-04-08 04:58:00,
2013-04-08 00:59:00,50.3,36.5,30.05,South,181,0.0,0.0,59,0.00,,SKC,0.00,VWS V13.01,2013-04-08 04:59:00,
2013-04-08 01:00:00,50.1,36.3,30.05,NNE,24,0.0,0.0,59,0.00,,SKC,0.00,VWS V13.01,2013-04-08 05:00:00,
2013-04-08 01:01:00,50.1,36.3,30.05,NNE,24,0.0,0.0,59,0.00,,SKC,0.00,VWS V13.01,2013-04-08 05:01:00,
2013-04-08 01:02:00,50.1,36.3,30.05,NNE,24,0.0,0.0,59,0.00,,SKC,0.00,VWS V13.01,2013-04-08 05:02:00,
2013-04-08 01:03:00,50.1,36.3,30.05,NNE,24,0.0,0.0,59,0.00,,SKC,0.00,VWS V13.01,2013-04-08 05:03:00,
2013-04-08 01:04:00,49.8,36.1,30.05,East,91,0.0,0.0,59,0.00,,SKC,0.00,VWS V13.01,2013-04-08 05:04:00,
2013-04-08 01:05:00,49.8,36.1,30.05,East,91,0.0,0.0,59,0.00,,SKC,0.00,VWS V13.01,2013-04-08 05:05:00,
2013-04-08 01:06:00,49.8,36.1,30.05,East,91,0.0,0.0,59,0.00,,SKC,0.00,VWS V13.01,2013-04-08 05:06:00,
2013-04-08 01:07:00,49.8,36.1,30.05,North,1,0.0,0.0,59,0.00,,SKC,0.00,VWS V13.01,2013-04-08 05:07:00,
2013-04-08 01:08:00,49.8,36.1,30.04,North,1,0.0,0.0,59,0.00,,SKC,0.00,VWS V13.01,2013-04-08 05:08:00,
2013-04-08 01:09:00,49.8,36.1,30.05,NE,46,0.0,0.0,59,0.00,,SKC,0.00,VWS V13.01,2013-04-08 05:09:00,
2013-04-08 01:10:00,49.8,36.1,30.05,NE,46,0.0,0.0,59,0.00,,SKC,0.00,VWS V13.01,2013-04-08 05:10:00,
2013-04-08 01:11:00,49.8,36.1,30.05,NE,46,0.0,0.0,59,0.00,,SKC,0.00,VWS V13.01,2013-04-08 05:11:00,
2013-04-08 01:12:00,49.6,35.9,30.05,NE,46,3.1,3.1,59,0.00,,SKC,0.00,VWS V13.01,2013-04-08 05:12:00,
2013-04-08 01:13:00,49.6,35.9,30.05,NE,46,0.4,3.1,59,0.00,,SKC,0.00,VWS V13.01,2013-04-08 05:13:00,
2013-04-08 01:14:00,49.6,35.9,30.05,NE,46,0.4,0.4,59,0.00,,SKC,0.00,VWS V13.01,2013-04-08 05:14:00,
2013-04-08 01:15:00,49.2,35.5,30.05,NNE,24,2.2,2.2,59,0.00,,SKC,0.00,VWS V13.01,2013-04-08 05:15:00,
2013-04-08 01:16:00,49.2,35.5,30.05,NNE,24,2.2,2.2,59,0.00,,SKC,0.00,VWS V13.01,2013-04-08 05:16:00,
2013-04-08 01:17:00,49.1,35.4,30.05,NNE,24,3.3,3.3,59,0.00,,SKC,0.00,VWS V13.01,2013-04-08 05:17:00,
2013-04-08 01:18:00,49.1,35.4,30.05,NNE,24,3.3,3.3,59,0.00,,SKC,0.00,VWS V13.01,2013-04-08 05:18:00,
2013-04-08 01:19:00,48.9,35.2,30.05,NNE,24,0.0,3.3,59,0.00,,SKC,0.00,VWS V13.01,2013-04-08 05:19:00,
2013-04-08 01:20:00,48.9,35.2,30.05,NNE,24,0.0,0.0,59,0.00,,SKC,0.00,VWS V13.01,2013-04-08 05:20:00,
2013-04-08 01:21:00,48.9,35.2,30.05,NNE,24,0.0,0.0,59,0.00,,SKC,0.00,VWS V13.01,2013-04-08 05:21:00,
2013-04-08 01:22:00,48.7,35.0,30.05,NNE,24,0.0,0.0,59,0.00,,SKC,0.00,VWS V13.01,2013-04-08 05:22:00,
2013-04-08 01:23:00,48.7,35.0,30.05,NNE,24,0.0,0.0,59,0.00,,SKC,0.00,VWS V13.01,2013-04-08 05:23:00,
2013-04-08 01:24:00,48.7,35.0,30.06,NNE,24,0.0,0.0,59,0.00,,SKC,0.00,VWS V13.01,2013-04-08 05:24:00,
2013-04-08 01:25:00,48.7,35.0,30.06,NNE,24,0.0,0.0,59,0.00,,SKC,0.00,VWS V13.01,2013-04-08 05:25:00,
2013-04-08 01:26:00,48.7,35.0,30.06,NNE,24,0.0,0.0,59,0.00,,SKC,0.00,VWS V13.01,2013-04-08 05:26:00,
2013-04-08 01:27:00,48.5,34.8,30.06,NNE,24,0.0,0.0,59,0.00,,SKC,0.00,VWS V13.01,2013-04-08 05:27:00,
2013-04-08 01:28:00,48.5,35.3,30.06,East,91,0.0,0.0,60,0.00,,SKC,0.00,VWS V13.01,2013-04-08 05:28:00,
2013-04-08 01:29:00,48.5,35.3,30.06,East,91,0.0,0.0,60,0.00,,SKC,0.00,VWS V13.01,2013-04-08 05:29:00,
2013-04-08 01:30:00,48.3,35.1,30.06,SSE,158,2.4,2.4,60,0.00,,SKC,0.00,VWS V13.01,2013-04-08 05:30:00,
2013-04-08 01:31:00,48.3,35.1,30.06,SSE,158,2.4,2.4,60,0.00,,SKC,0.00,VWS V13.01,2013-04-08 05:31:00,
2013-04-08 01:32:00,48.2,35.0,30.06,SSE,158,0.0,2.4,60,0.00,,SKC,0.00,VWS V13.01,2013-04-08 05:32:00,
2013-04-08 01:33:00,48.2,35.0,30.06,SSE,158,0.0,0.0,60,0.00,,SKC,0.00,VWS V13.01,2013-04-08 05:33:00,
2013-04-08 01:34:00,48.0,34.8,30.07,SSE,158,0.0,0.0,60,0.00,,SKC,0.00,VWS V13.01,2013-04-08 05:34:00,
2013-04-08 01:35:00,48.0,34.8,30.07,SSE,158,0.0,0.0,60,0.00,,SKC,0.00,VWS V13.01,2013-04-08 05:35:00,
2013-04-08 01:36:00,48.0,34.8,30.07,SSE,158,0.0,0.0,60,0.00,,SKC,0.00,VWS V13.01,2013-04-08 05:36:00,
2013-04-08 01:37:00,48.0,34.8,30.07,SSE,158,0.0,0.0,60,0.00,,SKC,0.00,VWS V13.01,2013-04-08 05:37:00,
2013-04-08 01:38:00,48.0,34.8,30.07,SSE,158,0.0,0.0,60,0.00,,SKC,0.00,VWS V13.01,2013-04-08 05:38:00,
2013-04-08 01:39:00,48.0,34.8,30.07,SSE,158,0.0,0.0,60,0.00,,SKC,0.00,VWS V13.01,2013-04-08 05:39:00,
2013-04-08 01:40:00,48.0,34.8,30.07,SSE,158,0.0,0.0,60,0.00,,SKC,0.00,VWS V13.01,2013-04-08 05:40:00,
2013-04-08 01:41:00,48.0,34.8,30.07,SSE,158,0.0,0.0,60,0.00,,SKC,0.00,VWS V13.01,2013-04-08 05:41:00,
2013-04-08 01:42:00,48.0,34.8,30.07,SSE,158,0.0,0.0,60,0.00,,SKC,0.00,VWS V13.01,2013-04-08 05:42:00,
2013-04-08 01:43:00,48.0,34.8,30.08,SE,136,0.8,0.8,60,0.00,,SKC,0.00,VWS V13.01,2013-04-08 05:43:00,
2013-04-08 01:44:00,48.0,34.8,30.08,SE,136,0.8,0.8,60,0.00,,SKC,0.00,VWS V13.01,2013-04-08 05:44:00,
2013-04-08 01:45:00,48.0,34.8,30.08,SE,136,0.0,0.8,60,0.00,,SKC,0.00,VWS V13.01,2013-04-08 05:45:00,
2013-04-08 01:46:00,48.0,34.8,30.08,SE,136,0.0,0.0,60,0.00,,SKC,0.00,VWS V13.01,2013-04-08 05:46:00,
2013-04-08 01:47:00,48.0,34.8,30.08,SE,136,0.0,0.0,60,0.00,,SKC,0.00,VWS V13.01,2013-04-08 05:47:00,
2013-04-08 01:48:00,48.0,34.8,30.07,SE,136,0.0,0.0,60,0.00,,SKC,0.00,VWS V13.01,2013-04-08 05:48:00,
2013-04-08 01:49:00,48.2,35.0,30.07,North,1,0.0,0.0,60,0.00,,SKC,0.00,VWS V13.01,2013-04-08 05:49:00,
2013-04-08 01:50:00,48.2,35.0,30.08,North,1,0.0,0.0,60,0.00,,SKC,0.00,VWS V13.01,2013-04-08 05:50:00,
2013-04-08 01:51:00,48.2,35.0,30.08,North,1,0.0,0.0,60,0.00,,SKC,0.00,VWS V13.01,2013-04-08 05:51:00,
2013-04-08 01:52:00,48.2,35.0,30.07,NE,46,0.0,0.0,60,0.00,,SKC,0.00,VWS V13.01,2013-04-08 05:52:00,
2013-04-08 01:53:00,48.2,35.0,30.07,NE,46,0.0,0.0,60,0.00,,SKC,0.00,VWS V13.01,2013-04-08 05:53:00,
2013-04-08 01:54:00,48.3,35.1,30.07,NNW,338,0.0,0.0,60,0.00,,SKC,0.00,VWS V13.01,2013-04-08 05:54:00,
2013-04-08 01:55:00,48.3,35.1,30.07,NNW,338,0.0,0.0,60,0.00,,SKC,0.00,VWS V13.01,2013-04-08 05:55:00,
2013-04-08 01:56:00,48.3,35.1,30.07,NNW,338,0.0,0.0,60,0.00,,SKC,0.00,VWS V13.01,2013-04-08 05:56:00,
2013-04-08 01:57:00,48.3,35.1,30.07,NW,316,0.0,0.0,60,0.00,,SKC,0.00,VWS V13.01,2013-04-08 05:57:00,
2013-04-08 01:58:00,48.3,35.1,30.07,NW,316,0.0,0.0,60,0.00,,SKC,0.00,VWS V13.01,2013-04-08 05:58:00,
2013-04-08 01:59:00,48.3,35.1,30.07,NW,316,0.0,0.0,60,0.00,,SKC,0.00,VWS V13.01,2013-04-08 05:59:00,
2013-04-08 02:00:00,48.3,35.1,30.07,NW,316,0.0,0.0,60,0.00,,SKC,0.00,VWS V13.01,2013-04-08 06:00:00,
2013-04-08 02:01:00,48.3,35.1,30.07,NW,316,0.0,0.0,60,0.00,,SKC,0.00,VWS V13.01,2013-04-08 06:01:00,
2013-04-08 02:02:00,48.3,35.1,30.07,NW,316,0.0,0.0,60,0.00,,SKC,0.00,VWS V13.01,2013-04-08 06:02:00,
2013-04-08 02:03:00,48.3,35.1,30.07,NW,316,0.0,0.0,60,0.00,,SKC,0.00,VWS V13.01,2013-04-08 06:03:00,
2013-04-08 02:04:00,48.3,35.1,30.07,NW,316,0.0,0.0,60,0.00,,SKC,0.00,VWS V13.01,2013-04-08 06:04:00,
2013-04-08 02:05:00,48.3,35.1,30.07,NW,316,0.0,0.0,60,0.00,,SKC,0.00,VWS V13.01,2013-04-08 06:05:00,
2013-04-08 02:06:00,48.3,35.1,30.07,NW,316,0.0,0.0,60,0.00,,SKC,0.00,VWS V13.01,2013-04-08 06:06:00,
2013-04-08 02:07:00,48.3,35.1,30.07,NW,316,0.0,0.0,60,0.00,,SKC,0.00,VWS V13.01,2013-04-08 06:07:00,
2013-04-08 02:08:00,48.3,35.1,30.08,NW,316,0.0,0.0,60,0.00,,SKC,0.00,VWS V13.01,2013-04-08 06:08:00,
2013-04-08 02:09:00,48.3,35.1,30.08,NE,46,0.0,0.0,60,0.00,,SKC,0.00,VWS V13.01,2013-04-08 06:09:00,
2013-04-08 02:10:00,48.3,35.1,30.09,NE,46,0.0,0.0,60,0.00,,SKC,0.00,VWS V13.01,2013-04-08 06:10:00,
2013-04-08 02:11:00,48.2,35.0,30.09,NE,46,0.0,0.0,60,0.00,,SKC,0.00,VWS V13.01,2013-04-08 06:11:00,
2013-04-08 02:12:00,48.2,35.0,30.09,NE,46,0.0,0.0,60,0.00,,SKC,0.00,VWS V13.01,2013-04-08 06:12:00,
2013-04-08 02:13:00,48.2,35.0,30.09,ENE,68,0.0,0.0,60,0.00,,SKC,0.00,VWS V13.01,2013-04-08 06:13:00,
2013-04-08 02:14:00,48.0,34.8,30.09,ENE,68,0.0,0.0,60,0.00,,SKC,0.00,VWS V13.01,2013-04-08 06:14:00,
2013-04-08 02:15:00,48.0,34.8,30.09,ESE,114,0.0,0.0,60,0.00,,SKC,0.00,VWS V13.01,2013-04-08 06:15:00,
2013-04-08 02:16:00,48.0,34.8,30.09,ESE,114,0.0,0.0,60,0.00,,SKC,0.00,VWS V13.01,2013-04-08 06:16:00,
2013-04-08 02:17:00,48.0,34.8,30.09,ESE,114,0.0,0.0,60,0.00,,SKC,0.00,VWS V13.01,2013-04-08 06:17:00,
2013-04-08 02:18:00,47.8,35.0,30.09,ESE,114,1.3,1.3,61,0.00,,SKC,0.00,VWS V13.01,2013-04-08 06:18:00,
2013-04-08 02:19:00,47.8,35.0,30.09,ESE,114,1.3,1.3,61,0.00,,SKC,0.00,VWS V13.01,2013-04-08 06:19:00,
2013-04-08 02:20:00,47.8,35.0,30.09,ESE,114,0.0,1.3,61,0.00,,SKC,0.00,VWS V13.01,2013-04-08 06:20:00,
2013-04-08 02:21:00,47.8,35.0,30.09,ESE,114,0.0,0.0,61,0.00,,SKC,0.00,VWS V13.01,2013-04-08 06:21:00,
2013-04-08 02:22:00,47.8,35.0,30.09,SE,136,0.0,0.0,61,0.00,,SKC,0.00,VWS V13.01,2013-04-08 06:22:00,
2013-04-08 02:23:00,47.8,35.0,30.09,SE,136,0.0,0.0,61,0.00,,SKC,0.00,VWS V13.01,2013-04-08 06:23:00,
2013-04-08 02:24:00,47.6,34.8,30.09,NE,46,0.0,0.0,61,0.00,,SKC,0.00,VWS V13.01,2013-04-08 06:24:00,
2013-04-08 02:25:00,47.6,34.8,30.09,NE,46,0.0,0.0,61,0.00,,SKC,0.00,VWS V13.01,2013-04-08 06:25:00,
2013-04-08 02:26:00,47.6,34.8,30.09,NNW,338,0.0,0.0,61,0.00,,SKC,0.00,VWS V13.01,2013-04-08 06:26:00,
2013-04-08 02:27:00,47.6,34.8,30.09,NNW,338,0.0,0.0,61,0.00,,SKC,0.00,VWS V13.01,2013-04-08 06:27:00,
2013-04-08 02:28:00,47.6,34.8,30.09,NNW,338,0.0,0.0,61,0.00,,SKC,0.00,VWS V13.01,2013-04-08 06:28:00,
2013-04-08 02:29:00,47.6,34.8,30.09,NNW,338,0.0,0.0,61,0.00,,SKC,0.00,VWS V13.01,2013-04-08 06:29:00,
2013-04-08 02:30:00,47.6,34.8,30.09,NNW,338,0.0,0.0,61,0.00,,SKC,0.00,VWS V13.01,2013-04-08 06:30:00,
2013-04-08 02:31:00,47.4,34.6,30.09,NNW,338,0.0,0.0,61,0.00,,SKC,0.00,VWS V13.01,2013-04-08 06:31:00,
2013-04-08 02:32:00,47.4,34.6,30.10,NNW,338,0.0,0.0,61,0.00,,SKC,0.00,VWS V13.01,2013-04-08 06:32:00,
2013-04-08 02:33:00,47.4,34.6,30.10,NNW,338,0.0,0.0,61,0.00,,SKC,0.00,VWS V13.01,2013-04-08 06:33:00,
2013-04-08 02:34:00,47.4,34.6,30.10,NNW,338,0.0,0.0,61,0.00,,SKC,0.00,VWS V13.01,2013-04-08 06:34:00,
2013-04-08 02:35:00,47.4,34.6,30.10,NNW,338,0.0,0.0,61,0.00,,SKC,0.00,VWS V13.01,2013-04-08 06:35:00,
2013-04-08 02:36:00,47.4,34.6,30.10,NNW,338,0.0,0.0,61,0.00,,SKC,0.00,VWS V13.01,2013-04-08 06:36:00,
2013-04-08 02:37:00,47.3,34.5,30.10,NNW,338,0.0,0.0,61,0.00,,SKC,0.00,VWS V13.01,2013-04-08 06:37:00,
2013-04-08 02:38:00,47.3,34.5,30.11,NNW,338,0.0,0.0,61,0.00,,SKC,0.00,VWS V13.01,2013-04-08 06:38:00,
2013-04-08 02:39:00,47.3,34.5,30.11,NNW,338,0.0,0.0,61,0.00,,SKC,0.00,VWS V13.01,2013-04-08 06:39:00,
2013-04-08 02:40:00,47.3,34.5,30.11,NNW,338,0.0,0.0,61,0.00,,SKC,0.00,VWS V13.01,2013-04-08 06:40:00,
2013-04-08 02:41:00,47.1,34.4,30.11,NNW,338,0.0,0.0,61,0.00,,SKC,0.00,VWS V13.01,2013-04-08 06:41:00,
2013-04-08 02:42:00,47.1,34.4,30.11,NNW,338,0.0,0.0,61,0.00,,SKC,0.00,VWS V13.01,2013-04-08 06:42:00,
2013-04-08 02:43:00,47.1,34.4,30.11,NNW,338,0.0,0.0,61,0.00,,SKC,0.00,VWS V13.01,2013-04-08 06:43:00,
2013-04-08 02:44:00,47.1,34.4,30.11,NNW,338,0.0,0.0,61,0.00,,SKC,0.00,VWS V13.01,2013-04-08 06:44:00,
2013-04-08 02:45:00,47.1,34.4,30.11,NNW,338,0.0,0.0,61,0.00,,SKC,0.00,VWS V13.01,2013-04-08 06:45:00,
2013-04-08 02:46:00,47.1,34.4,30.11,NNW,338,0.0,0.0,61,0.00,,SKC,0.00,VWS V13.01,2013-04-08 06:46:00,
2013-04-08 02:47:00,47.1,34.4,30.11,NNW,338,0.0,0.0,61,0.00,,SKC,0.00,VWS V13.01,2013-04-08 06:47:00,
2013-04-08 02:48:00,47.1,34.4,30.11,NNW,338,1.5,1.5,61,0.00,,SKC,0.00,VWS V13.01,2013-04-08 06:48:00,
2013-04-08 02:49:00,47.1,34.4,30.11,NNW,338,1.5,1.5,61,0.00,,SKC,0.00,VWS V13.01,2013-04-08 06:49:00,
2013-04-08 02:50:00,46.9,34.2,30.11,North,1,0.0,1.5,61,0.00,,SKC,0.00,VWS V13.01,2013-04-08 06:50:00,
2013-04-08 02:51:00,46.9,34.2,30.11,North,1,0.0,0.0,61,0.00,,SKC,0.00,VWS V13.01,2013-04-08 06:51:00,
2013-04-08 02:52:00,46.9,34.2,30.11,North,1,0.0,0.0,61,0.00,,SKC,0.00,VWS V13.01,2013-04-08 06:52:00,
2013-04-08 02:53:00,46.7,33.6,30.11,NW,316,2.6,2.6,60,0.00,,SKC,0.00,VWS V13.01,2013-04-08 06:53:00,
2013-04-08 02:54:00,46.7,33.6,30.11,NW,316,0.0,2.6,60,0.00,,SKC,0.00,VWS V13.01,2013-04-08 06:54:00,
2013-04-08 02:55:00,46.7,33.6,30.12,NW,316,0.0,0.0,60,0.00,,SKC,0.00,VWS V13.01,2013-04-08 06:55:00,
2013-04-08 02:56:00,46.5,33.4,30.11,NW,316,4.9,4.9,60,0.00,,SKC,0.00,VWS V13.01,2013-04-08 06:56:00,
2013-04-08 02:57:00,46.5,33.4,30.11,NW,316,4.9,4.9,60,0.00,,SKC,0.00,VWS V13.01,2013-04-08 06:57:00,
2013-04-08 02:58:00,46.5,33.4,30.11,NW,316,2.6,4.9,60,0.00,,SKC,0.00,VWS V13.01,2013-04-08 06:58:00,
2013-04-08 02:59:00,46.5,33.4,30.11,NW,316,2.6,2.6,60,0.00,,SKC,0.00,VWS V13.01,2013-04-08 06:59:00,
2013-04-08 03:00:00,46.5,33.4,30.11,NW,316,4.9,4.9,60,0.00,,SKC,0.00,VWS V13.01,2013-04-08 07:00:00,
2013-04-08 03:01:00,46.5,33.4,30.11,NW,316,4.9,4.9,60,0.00,,SKC,0.00,VWS V13.01,2013-04-08 07:01:00,
2013-04-08 03:02:00,46.5,33.4,30.11,NW,316,4.9,4.9,60,0.00,,SKC,0.00,VWS V13.01,2013-04-08 07:02:00,
2013-04-08 03:03:00,46.2,33.1,30.11,NNW,338,2.2,4.9,60,0.00,,SKC,0.00,VWS V13.01,2013-04-08 07:03:00,
2013-04-08 03:04:00,46.2,33.1,30.11,NNW,338,2.2,2.2,60,0.00,,SKC,0.00,VWS V13.01,2013-04-08 07:04:00,
2013-04-08 03:05:00,46.2,33.1,30.11,NNW,338,0.0,2.2,60,0.00,,SKC,0.00,VWS V13.01,2013-04-08 07:05:00,
2013-04-08 03:06:00,46.2,33.1,30.11,NNW,338,0.0,0.0,60,0.00,,SKC,0.00,VWS V13.01,2013-04-08 07:06:00,
2013-04-08 03:07:00,46.2,33.1,30.11,NNW,338,0.0,0.0,60,0.00,,SKC,0.00,VWS V13.01,2013-04-08 07:07:00,
2013-04-08 03:08:00,46.2,33.1,30.11,NW,316,0.0,0.0,60,0.00,,SKC,0.00,VWS V13.01,2013-04-08 07:08:00,
2013-04-08 03:09:00,46.0,32.9,30.11,NNW,338,5.5,5.5,60,0.00,,SKC,0.00,VWS V13.01,2013-04-08 07:09:00,
2013-04-08 03:10:00,46.0,32.9,30.12,NNW,338,5.5,5.5,60,0.00,,SKC,0.00,VWS V13.01,2013-04-08 07:10:00,
2013-04-08 03:11:00,46.0,32.9,30.12,NNW,338,0.0,5.5,60,0.00,,SKC,0.00,VWS V13.01,2013-04-08 07:11:00,
2013-04-08 03:12:00,46.0,32.9,30.12,NNW,338,0.0,0.0,60,0.00,,SKC,0.00,VWS V13.01,2013-04-08 07:12:00,
2013-04-08 03:13:00,46.0,32.9,30.12,NW,316,0.0,0.0,60,0.00,,SKC,0.00,VWS V13.01,2013-04-08 07:13:00,
2013-04-08 03:14:00,46.0,32.9,30.12,NW,316,0.0,0.0,60,0.00,,SKC,0.00,VWS V13.01,2013-04-08 07:14:00,
2013-04-08 03:15:00,46.0,32.9,30.12,NW,316,0.0,0.0,60,0.00,,SKC,0.00,VWS V13.01,2013-04-08 07:15:00,
2013-04-08 03:16:00,45.8,32.7,30.12,NW,316,0.0,0.0,60,0.00,,SKC,0.00,VWS V13.01,2013-04-08 07:16:00,
2013-04-08 03:17:00,45.8,32.7,30.12,NW,316,0.0,0.0,60,0.00,,SKC,0.00,VWS V13.01,2013-04-08 07:17:00,
2013-04-08 03:18:00,45.6,32.5,30.13,NW,316,0.0,0.0,60,0.00,,SKC,0.00,VWS V13.01,2013-04-08 07:18:00,
2013-04-08 03:19:00,45.6,32.5,30.13,NW,316,0.0,0.0,60,0.00,,SKC,0.00,VWS V13.01,2013-04-08 07:19:00,
2013-04-08 03:20:00,45.6,32.5,30.13,NW,316,0.0,0.0,60,0.00,,SKC,0.00,VWS V13.01,2013-04-08 07:20:00,
2013-04-08 03:21:00,45.6,32.5,30.13,NW,316,0.0,0.0,60,0.00,,SKC,0.00,VWS V13.01,2013-04-08 07:21:00,
2013-04-08 03:22:00,45.6,32.9,30.13,ENE,68,0.0,0.0,61,0.00,,SKC,0.00,VWS V13.01,2013-04-08 07:22:00,
2013-04-08 03:23:00,45.6,32.9,30.13,ENE,68,0.0,0.0,61,0.00,,SKC,0.00,VWS V13.01,2013-04-08 07:23:00,
2013-04-08 03:24:00,45.6,32.9,30.13,North,1,0.2,0.2,61,0.00,,SKC,0.00,VWS V13.01,2013-04-08 07:24:00,
2013-04-08 03:26:00,45.5,32.8,30.13,NW,316,0.8,0.8,61,0.00,,SKC,0.00,VWS V13.01,2013-04-08 07:26:00,
2013-04-08 03:27:00,45.5,32.8,30.13,NW,316,0.8,0.8,61,0.00,,SKC,0.00,VWS V13.01,2013-04-08 07:27:00,
2013-04-08 03:28:00,45.5,32.8,30.12,NNW,338,2.9,2.9,61,0.00,,SKC,0.00,VWS V13.01,2013-04-08 07:28:00,
2013-04-08 03:29:00,45.5,32.8,30.12,NNW,338,2.9,2.9,61,0.00,,SKC,0.00,VWS V13.01,2013-04-08 07:29:00,
2013-04-08 03:30:00,45.5,32.8,30.12,NW,316,2.2,2.9,61,0.00,,SKC,0.00,VWS V13.01,2013-04-08 07:30:00,
2013-04-08 03:31:00,45.3,32.7,30.12,NW,316,2.2,2.2,61,0.00,,SKC,0.00,VWS V13.01,2013-04-08 07:31:00,
2013-04-08 03:32:00,45.3,32.7,30.12,NW,316,2.2,2.2,61,0.00,,SKC,0.00,VWS V13.01,2013-04-08 07:32:00,
2013-04-08 03:33:00,45.1,32.5,30.13,NNW,338,1.7,2.2,61,0.00,,SKC,0.00,VWS V13.01,2013-04-08 07:33:00,
2013-04-08 03:35:00,45.1,32.5,30.12,North,1,1.5,1.7,61,0.00,,SKC,0.00,VWS V13.01,2013-04-08 07:35:00,
2013-04-08 03:37:00,44.9,32.3,30.12,North,1,1.3,1.3,61,0.00,,SKC,0.00,VWS V13.01,2013-04-08 07:37:00,
2013-04-08 03:38:00,44.9,32.3,30.13,North,1,1.3,1.3,61,0.00,,SKC,0.00,VWS V13.01,2013-04-08 07:38:00,
2013-04-08 03:39:00,44.9,32.3,30.12,NNE,24,0.0,1.3,61,0.00,,SKC,0.00,VWS V13.01,2013-04-08 07:39:00,
2013-04-08 03:40:00,44.9,32.3,30.13,NNE,24,0.0,0.0,61,0.00,,SKC,0.00,VWS V13.01,2013-04-08 07:40:00,
2013-04-08 03:41:00,44.7,32.1,30.13,NNE,24,0.0,0.0,61,0.00,,SKC,0.00,VWS V13.01,2013-04-08 07:41:00,
2013-04-08 03:42:00,44.7,32.1,30.13,NNE,24,0.0,0.0,61,0.00,,SKC,0.00,VWS V13.01,2013-04-08 07:42:00,
2013-04-08 03:43:00,44.6,32.0,30.13,NE,46,0.0,0.0,61,0.00,,SKC,0.00,VWS V13.01,2013-04-08 07:43:00,
2013-04-08 03:44:00,44.6,32.0,30.13,NE,46,0.0,0.0,61,0.00,,SKC,0.00,VWS V13.01,2013-04-08 07:44:00,
2013-04-08 03:45:00,44.6,32.0,30.14,East,91,0.0,0.0,61,0.00,,SKC,0.00,VWS V13.01,2013-04-08 07:45:00,
2013-04-08 03:46:00,44.6,32.0,30.14,East,91,0.0,0.0,61,0.00,,SKC,0.00,VWS V13.01,2013-04-08 07:46:00,
2013-04-08 03:47:00,44.6,32.0,30.14,East,91,0.0,0.0,61,0.00,,SKC,0.00,VWS V13.01,2013-04-08 07:47:00,
2013-04-08 03:48:00,44.4,31.8,30.14,ESE,114,0.0,0.0,61,0.00,,SKC,0.00,VWS V13.01,2013-04-08 07:48:00,
2013-04-08 03:49:00,44.4,31.8,30.13,ESE,114,0.0,0.0,61,0.00,,SKC,0.00,VWS V13.01,2013-04-08 07:49:00,
2013-04-08 03:50:00,44.4,31.8,30.13,ESE,114,0.0,0.0,61,0.00,,SKC,0.00,VWS V13.01,2013-04-08 07:50:00,
2013-04-08 03:51:00,44.4,31.8,30.14,ESE,114,0.0,0.0,61,0.00,,SKC,0.00,VWS V13.01,2013-04-08 07:51:00,
2013-04-08 03:52:00,44.4,32.2,30.14,NW,316,0.0,0.0,62,0.00,,SKC,0.00,VWS V13.01,2013-04-08 07:52:00,
2013-04-08 03:53:00,44.4,32.2,30.14,NW,316,0.0,0.0,62,0.00,,SKC,0.00,VWS V13.01,2013-04-08 07:53:00,
2013-04-08 03:54:00,44.4,32.2,30.14,NE,46,0.0,0.0,62,0.00,,SKC,0.00,VWS V13.01,2013-04-08 07:54:00,
2013-04-08 03:55:00,44.4,32.2,30.14,NE,46,0.0,0.0,62,0.00,,SKC,0.00,VWS V13.01,2013-04-08 07:55:00,
2013-04-08 03:56:00,44.4,32.2,30.13,North,1,4.2,4.2,62,0.00,,SKC,0.00,VWS V13.01,2013-04-08 07:56:00,
2013-04-08 03:57:00,44.4,32.2,30.14,North,1,4.2,4.2,62,0.00,,SKC,0.00,VWS V13.01,2013-04-08 07:57:00,
2013-04-08 03:58:00,44.4,32.2,30.14,North,1,4.2,4.2,62,0.00,,SKC,0.00,VWS V13.01,2013-04-08 07:58:00,
2013-04-08 03:59:00,44.4,32.2,30.14,North,1,4.2,4.2,62,0.00,,SKC,0.00,VWS V13.01,2013-04-08 07:59:00,
2013-04-08 04:00:00,44.4,32.2,30.14,North,1,4.2,4.2,62,0.00,,SKC,0.00,VWS V13.01,2013-04-08 08:00:00,
2013-04-08 04:01:00,44.4,32.2,30.14,North,1,4.2,4.2,62,0.00,,SKC,0.00,VWS V13.01,2013-04-08 08:01:00,
2013-04-08 04:02:00,44.4,32.2,30.14,North,1,4.2,4.2,62,0.00,,SKC,0.00,VWS V13.01,2013-04-08 08:02:00,
2013-04-08 04:03:00,44.4,32.2,30.14,North,1,4.2,4.2,62,0.00,,SKC,0.00,VWS V13.01,2013-04-08 08:03:00,
2013-04-08 04:04:00,44.4,32.2,30.14,North,1,4.2,4.2,62,0.00,,SKC,0.00,VWS V13.01,2013-04-08 08:04:00,
2013-04-08 04:05:00,44.4,32.2,30.14,North,1,4.2,4.2,62,0.00,,SKC,0.00,VWS V13.01,2013-04-08 08:05:00,
2013-04-08 04:06:00,44.4,32.2,30.14,North,1,4.2,4.2,62,0.00,,SKC,0.00,VWS V13.01,2013-04-08 08:06:00,
2013-04-08 04:07:00,44.4,32.2,30.14,North,1,4.2,4.2,62,0.00,,SKC,0.00,VWS V13.01,2013-04-08 08:07:00,
2013-04-08 04:08:00,44.4,32.2,30.14,NW,316,2.9,4.2,62,0.00,,SKC,0.00,VWS V13.01,2013-04-08 08:08:00,
2013-04-08 04:09:00,44.4,32.2,30.14,NW,316,2.9,2.9,62,0.00,,SKC,0.00,VWS V13.01,2013-04-08 08:09:00,
2013-04-08 04:10:00,44.4,32.2,30.14,NW,316,2.9,2.9,62,0.00,,SKC,0.00,VWS V13.01,2013-04-08 08:10:00,
2013-04-08 04:11:00,44.4,32.2,30.14,NW,316,2.9,2.9,62,0.00,,SKC,0.00,VWS V13.01,2013-04-08 08:11:00,
2013-04-08 04:12:00,44.4,32.2,30.14,NW,316,2.9,2.9,62,0.00,,SKC,0.00,VWS V13.01,2013-04-08 08:12:00,
2013-04-08 04:13:00,44.4,32.2,30.14,NW,316,2.0,2.9,62,0.00,,SKC,0.00,VWS V13.01,2013-04-08 08:13:00,
2013-04-08 04:14:00,44.4,32.6,30.14,NW,316,2.0,2.0,63,0.00,,SKC,0.00,VWS V13.01,2013-04-08 08:14:00,
2013-04-08 04:15:00,44.0,31.8,30.14,NW,316,2.0,2.0,62,0.00,,SKC,0.00,VWS V13.01,2013-04-08 08:15:00,
2013-04-08 04:16:00,44.0,31.8,30.14,NW,316,0.0,2.0,62,0.00,,SKC,0.00,VWS V13.01,2013-04-08 08:16:00,
2013-04-08 04:17:00,44.0,31.8,30.14,NW,316,0.0,0.0,62,0.00,,SKC,0.00,VWS V13.01,2013-04-08 08:17:00,
2013-04-08 04:18:00,43.8,31.6,30.14,NW,316,0.0,0.0,62,0.00,,SKC,0.00,VWS V13.01,2013-04-08 08:18:00,
2013-04-08 04:19:00,43.8,31.6,30.14,NW,316,0.0,0.0,62,0.00,,SKC,0.00,VWS V13.01,2013-04-08 08:19:00,
2013-04-08 04:20:00,43.8,31.6,30.14,NE,46,0.0,0.0,62,0.00,,SKC,0.00,VWS V13.01,2013-04-08 08:20:00,
2013-04-08 04:21:00,43.8,31.6,30.14,NE,46,0.0,0.0,62,0.00,,SKC,0.00,VWS V13.01,2013-04-08 08:21:00,
2013-04-08 04:22:00,43.8,31.6,30.14,NE,46,0.0,0.0,62,0.00,,SKC,0.00,VWS V13.01,2013-04-08 08:22:00,
2013-04-08 04:23:00,43.8,31.6,30.14,NE,46,0.0,0.0,62,0.00,,SKC,0.00,VWS V13.01,2013-04-08 08:23:00,
2013-04-08 04:24:00,43.8,31.6,30.14,NE,46,0.0,0.0,62,0.00,,SKC,0.00,VWS V13.01,2013-04-08 08:24:00,
2013-04-08 04:25:00,43.8,31.6,30.15,NE,46,0.0,0.0,62,0.00,,SKC,0.00,VWS V13.01,2013-04-08 08:25:00,
2013-04-08 04:26:00,43.8,32.0,30.15,NNW,338,0.0,0.0,63,0.00,,SKC,0.00,VWS V13.01,2013-04-08 08:26:00,
2013-04-08 04:27:00,43.8,32.0,30.14,NNW,338,0.0,0.0,63,0.00,,SKC,0.00,VWS V13.01,2013-04-08 08:27:00,
2013-04-08 04:28:00,43.8,32.0,30.14,NW,316,3.3,3.3,63,0.00,,SKC,0.00,VWS V13.01,2013-04-08 08:28:00,
2013-04-08 04:29:00,43.8,32.0,30.14,NW,316,3.3,3.3,63,0.00,,SKC,0.00,VWS V13.01,2013-04-08 08:29:00,
2013-04-08 04:30:00,43.8,32.0,30.14,NNW,338,2.6,3.3,63,0.00,,SKC,0.00,VWS V13.01,2013-04-08 08:30:00,
2013-04-08 04:31:00,43.8,32.0,30.14,NNW,338,2.6,2.6,63,0.00,,SKC,0.00,VWS V13.01,2013-04-08 08:31:00,
2013-04-08 04:32:00,43.8,32.0,30.14,NNW,338,2.6,2.6,63,0.00,,SKC,0.00,VWS V13.01,2013-04-08 08:32:00,
2013-04-08 04:33:00,43.8,32.0,30.15,NNW,338,0.0,2.6,63,0.00,,SKC,0.00,VWS V13.01,2013-04-08 08:33:00,
2013-04-08 04:34:00,43.8,32.0,30.14,NNW,338,0.0,0.0,63,0.00,,SKC,0.00,VWS V13.01,2013-04-08 08:34:00,
2013-04-08 04:35:00,43.8,32.0,30.15,NW,316,3.3,3.3,63,0.00,,SKC,0.00,VWS V13.01,2013-04-08 08:35:00,
2013-04-08 04:36:00,43.8,32.0,30.15,NW,316,3.3,3.3,63,0.00,,SKC,0.00,VWS V13.01,2013-04-08 08:36:00,
2013-04-08 04:37:00,43.8,32.0,30.15,NW,316,0.0,0.0,63,0.00,,SKC,0.00,VWS V13.01,2013-04-08 08:37:00,
2013-04-08 04:38:00,43.8,32.0,30.15,NW,316,0.0,0.0,63,0.00,,SKC,0.00,VWS V13.01,2013-04-08 08:38:00,
2013-04-08 04:39:00,43.8,32.0,30.15,NW,316,2.9,2.9,63,0.00,,SKC,0.00,VWS V13.01,2013-04-08 08:39:00,
2013-04-08 04:40:00,43.8,32.0,30.14,NW,316,2.9,2.9,63,0.00,,SKC,0.00,VWS V13.01,2013-04-08 08:40:00,
2013-04-08 04:41:00,43.7,32.3,30.15,North,1,2.6,2.9,64,0.00,,SKC,0.00,VWS V13.01,2013-04-08 08:41:00,
2013-04-08 04:42:00,43.7,32.3,30.14,North,1,2.6,2.6,64,0.00,,SKC,0.00,VWS V13.01,2013-04-08 08:42:00,
2013-04-08 04:43:00,43.7,31.9,30.14,NNW,338,2.2,2.6,63,0.00,,SKC,0.00,VWS V13.01,2013-04-08 08:43:00,
2013-04-08 04:44:00,43.7,31.9,30.15,NNW,338,2.2,2.2,63,0.00,,SKC,0.00,VWS V13.01,2013-04-08 08:44:00,
2013-04-08 04:45:00,43.7,31.9,30.15,NNW,338,0.0,2.2,63,0.00,,SKC,0.00,VWS V13.01,2013-04-08 08:45:00,
2013-04-08 04:46:00,43.7,31.9,30.15,NNW,338,0.0,0.0,63,0.00,,SKC,0.00,VWS V13.01,2013-04-08 08:46:00,
2013-04-08 04:47:00,43.7,32.0,30.15,NNW,338,0.0,0.0,63,0.00,,SKC,0.00,VWS V13.01,2013-04-08 08:47:00,
2013-04-08 04:48:00,43.7,31.9,30.15,NW,316,2.0,2.0,63,0.00,,SKC,0.00,VWS V13.01,2013-04-08 08:48:00,
2013-04-08 04:49:00,43.7,31.9,30.15,NW,316,2.0,2.0,63,0.00,,SKC,0.00,VWS V13.01,2013-04-08 08:49:00,
2013-04-08 04:50:00,43.7,31.9,30.15,NNW,338,3.1,3.1,63,0.00,,SKC,0.00,VWS V13.01,2013-04-08 08:50:00,
2013-04-08 04:51:00,43.7,31.9,30.15,NNW,338,3.1,3.1,63,0.00,,SKC,0.00,VWS V13.01,2013-04-08 08:51:00,
2013-04-08 04:52:00,43.5,31.8,30.15,WNW,294,0.0,0.0,63,0.00,,SKC,0.00,VWS V13.01,2013-04-08 08:52:00,
2013-04-08 04:53:00,43.5,31.8,30.15,WNW,294,0.0,0.0,63,0.00,,SKC,0.00,VWS V13.01,2013-04-08 08:53:00,
2013-04-08 04:54:00,43.5,31.8,30.15,NNW,338,0.4,0.4,63,0.00,,SKC,0.00,VWS V13.01,2013-04-08 08:54:00,
2013-04-08 04:55:00,43.5,31.8,30.15,NNW,338,0.4,0.4,63,0.00,,SKC,0.00,VWS V13.01,2013-04-08 08:55:00,
2013-04-08 04:56:00,43.5,31.8,30.16,North,1,0.0,0.4,63,0.00,,SKC,0.00,VWS V13.01,2013-04-08 08:56:00,
2013-04-08 04:57:00,43.5,31.8,30.16,North,1,0.0,0.0,63,0.00,,SKC,0.00,VWS V13.01,2013-04-08 08:57:00,
2013-04-08 04:58:00,43.5,31.8,30.16,NW,316,0.0,0.0,63,0.00,,SKC,0.00,VWS V13.01,2013-04-08 08:58:00,
2013-04-08 04:59:00,43.5,31.8,30.16,NW,316,0.0,0.0,63,0.00,,SKC,0.00,VWS V13.01,2013-04-08 08:59:00,
2013-04-08 05:00:00,43.5,32.2,30.16,NW,316,0.0,0.0,64,0.00,,SKC,0.00,VWS V13.01,2013-04-08 09:00:00,
2013-04-08 05:01:00,43.5,32.2,30.16,NW,316,0.0,0.0,64,0.00,,SKC,0.00,VWS V13.01,2013-04-08 09:01:00,
2013-04-08 05:02:00,43.5,32.2,30.16,NW,316,0.0,0.0,64,0.00,,SKC,0.00,VWS V13.01,2013-04-08 09:02:00,
2013-04-08 05:03:00,43.5,32.2,30.16,NW,316,0.0,0.0,64,0.00,,SKC,0.00,VWS V13.01,2013-04-08 09:03:00,
2013-04-08 05:04:00,43.5,32.2,30.16,NW,316,0.0,0.0,64,0.00,,SKC,0.00,VWS V13.01,2013-04-08 09:04:00,
2013-04-08 05:05:00,43.5,32.2,30.16,North,1,0.0,0.0,64,0.00,,SKC,0.00,VWS V13.01,2013-04-08 09:05:00,
2013-04-08 05:06:00,43.5,32.2,30.16,North,1,0.0,0.0,64,0.00,,SKC,0.00,VWS V13.01,2013-04-08 09:06:00,
2013-04-08 05:07:00,43.5,32.2,30.16,North,1,1.5,1.5,64,0.00,,SKC,0.00,VWS V13.01,2013-04-08 09:07:00,
2013-04-08 05:08:00,43.5,32.2,30.16,North,1,1.5,1.5,64,0.00,,SKC,0.00,VWS V13.01,2013-04-08 09:08:00,
2013-04-08 05:09:00,43.5,32.2,30.16,North,1,0.0,1.5,64,0.00,,SKC,0.00,VWS V13.01,2013-04-08 09:09:00,
2013-04-08 05:10:00,43.5,32.2,30.16,North,1,0.0,0.0,64,0.00,,SKC,0.00,VWS V13.01,2013-04-08 09:10:00,
2013-04-08 05:11:00,43.5,32.2,30.16,East,91,0.0,0.0,64,0.00,,SKC,0.00,VWS V13.01,2013-04-08 09:11:00,
2013-04-08 05:12:00,43.5,32.2,30.16,East,91,0.0,0.0,64,0.00,,SKC,0.00,VWS V13.01,2013-04-08 09:12:00,
2013-04-08 05:13:00,43.5,32.2,30.16,East,91,0.0,0.0,64,0.00,,SKC,0.00,VWS V13.01,2013-04-08 09:13:00,
2013-04-08 05:14:00,43.5,32.2,30.15,North,1,0.0,0.0,64,0.00,,SKC,0.00,VWS V13.01,2013-04-08 09:14:00,
2013-04-08 05:15:00,43.5,32.2,30.16,NW,316,2.4,2.4,64,0.00,,SKC,0.00,VWS V13.01,2013-04-08 09:15:00,
2013-04-08 05:16:00,43.5,32.2,30.15,NW,316,2.4,2.4,64,0.00,,SKC,0.00,VWS V13.01,2013-04-08 09:16:00,
2013-04-08 05:17:00,43.5,32.2,30.16,NE,46,1.3,2.4,64,0.00,,SKC,0.00,VWS V13.01,2013-04-08 09:17:00,
2013-04-08 05:18:00,43.5,32.2,30.16,NE,46,1.3,1.3,64,0.00,,SKC,0.00,VWS V13.01,2013-04-08 09:18:00,
2013-04-08 05:19:00,43.3,32.0,30.15,NE,46,1.3,1.3,64,0.00,,SKC,0.00,VWS V13.01,2013-04-08 09:19:00,
2013-04-08 05:20:00,43.3,32.0,30.16,North,1,0.0,1.3,64,0.00,,SKC,0.00,VWS V13.01,2013-04-08 09:20:00,
2013-04-08 05:21:00,43.3,32.0,30.16,North,1,0.0,0.0,64,0.00,,SKC,0.00,VWS V13.01,2013-04-08 09:21:00,
2013-04-08 05:22:00,43.3,32.0,30.16,NE,46,0.0,0.0,64,0.00,,SKC,0.00,VWS V13.01,2013-04-08 09:22:00,
2013-04-08 05:23:00,43.3,32.0,30.16,NE,46,0.0,0.0,64,0.00,,SKC,0.00,VWS V13.01,2013-04-08 09:23:00,
2013-04-08 05:24:00,43.3,32.0,30.16,NE,46,0.0,0.0,64,0.00,,SKC,0.00,VWS V13.01,2013-04-08 09:24:00,
2013-04-08 05:25:00,43.3,32.0,30.16,NE,46,0.0,0.0,64,0.00,,SKC,0.00,VWS V13.01,2013-04-08 09:25:00,
2013-04-08 05:26:00,43.3,32.0,30.16,NW,316,0.0,0.0,64,0.00,,SKC,0.00,VWS V13.01,2013-04-08 09:26:00,
2013-04-08 05:27:00,43.3,32.0,30.16,NW,316,0.0,0.0,64,0.00,,SKC,0.00,VWS V13.01,2013-04-08 09:27:00,
2013-04-08 05:28:00,43.3,32.0,30.16,NW,316,0.0,0.0,64,0.00,,SKC,0.00,VWS V13.01,2013-04-08 09:28:00,
2013-04-08 05:29:00,43.3,32.0,30.16,NW,316,0.0,0.0,64,0.00,,SKC,0.00,VWS V13.01,2013-04-08 09:29:00,
2013-04-08 05:30:00,43.3,32.0,30.16,NW,316,1.5,1.5,64,0.00,,SKC,0.00,VWS V13.01,2013-04-08 09:30:00,
2013-04-08 05:31:00,43.3,32.0,30.17,NW,316,1.5,1.5,64,0.00,,SKC,0.00,VWS V13.01,2013-04-08 09:31:00,
2013-04-08 05:32:00,43.3,32.0,30.16,NW,316,1.7,1.7,64,0.00,,SKC,0.00,VWS V13.01,2013-04-08 09:32:00,
2013-04-08 05:33:00,43.3,32.0,30.16,NW,316,1.7,1.7,64,0.00,,SKC,0.00,VWS V13.01,2013-04-08 09:33:00,
2013-04-08 05:34:00,43.3,32.0,30.16,NW,316,1.7,1.7,64,0.00,,SKC,0.00,VWS V13.01,2013-04-08 09:34:00,
2013-04-08 05:35:00,43.3,32.0,30.16,NNW,338,0.6,1.7,64,0.00,,SKC,0.00,VWS V13.01,2013-04-08 09:35:00,
2013-04-08 05:36:00,43.3,32.0,30.17,NNW,338,0.6,0.6,64,0.00,,SKC,0.00,VWS V13.01,2013-04-08 09:36:00,
2013-04-08 05:37:00,43.3,32.0,30.17,NNW,338,0.0,0.6,64,0.00,,SKC,0.00,VWS V13.01,2013-04-08 09:37:00,
2013-04-08 05:38:00,43.3,32.0,30.17,NNW,338,0.0,0.0,64,0.00,,SKC,0.00,VWS V13.01,2013-04-08 09:38:00,
2013-04-08 05:39:00,43.3,32.0,30.17,North,1,0.0,0.0,64,0.00,,SKC,0.00,VWS V13.01,2013-04-08 09:39:00,
2013-04-08 05:40:00,43.3,32.0,30.17,North,1,0.0,0.0,64,0.00,,SKC,0.00,VWS V13.01,2013-04-08 09:40:00,
2013-04-08 05:41:00,43.3,32.0,30.17,NNW,338,0.0,0.0,64,0.00,,SKC,0.00,VWS V13.01,2013-04-08 09:41:00,
2013-04-08 05:42:00,43.3,32.0,30.16,NNW,338,0.0,0.0,64,0.00,,SKC,0.00,VWS V13.01,2013-04-08 09:42:00,
2013-04-08 05:43:00,43.3,32.0,30.16,NNW,338,0.0,0.0,64,0.00,,SKC,0.00,VWS V13.01,2013-04-08 09:43:00,
2013-04-08 05:44:00,43.3,32.0,30.17,NNE,24,0.4,0.4,64,0.00,,SKC,0.00,VWS V13.01,2013-04-08 09:44:00,
2013-04-08 05:45:00,43.3,32.0,30.17,NNW,338,0.0,0.4,64,0.00,,SKC,0.00,VWS V13.01,2013-04-08 09:45:00,
2013-04-08 05:46:00,43.3,32.0,30.17,NNW,338,0.0,0.0,64,0.00,,SKC,0.00,VWS V13.01,2013-04-08 09:46:00,
2013-04-08 05:47:00,43.3,32.0,30.17,NNW,338,2.4,2.4,64,0.00,,SKC,0.00,VWS V13.01,2013-04-08 09:47:00,
2013-04-08 05:48:00,43.1,31.8,30.17,NNW,338,2.4,2.4,64,0.00,,SKC,0.00,VWS V13.01,2013-04-08 09:48:00,
2013-04-08 05:49:00,43.1,31.8,30.17,NNW,338,2.4,2.4,64,0.00,,SKC,0.00,VWS V13.01,2013-04-08 09:49:00,
2013-04-08 05:50:00,43.1,32.2,30.17,NNW,338,2.6,2.6,65,0.00,,SKC,0.00,VWS V13.01,2013-04-08 09:50:00,
2013-04-08 05:51:00,43.1,32.2,30.17,NNW,338,2.6,2.6,65,0.00,,SKC,0.00,VWS V13.01,2013-04-08 09:51:00,
2013-04-08 05:52:00,43.1,31.8,30.18,North,1,0.0,2.6,64,0.00,,SKC,0.00,VWS V13.01,2013-04-08 09:52:00,
2013-04-08 05:53:00,43.1,31.8,30.18,North,1,0.0,0.0,64,0.00,,SKC,0.00,VWS V13.01,2013-04-08 09:53:00,
2013-04-08 05:54:00,43.1,31.8,30.17,NNW,338,0.0,0.0,64,0.00,,SKC,0.00,VWS V13.01,2013-04-08 09:54:00,
2013-04-08 05:55:00,43.1,31.8,30.17,NNW,338,0.0,0.0,64,0.00,,SKC,0.00,VWS V13.01,2013-04-08 09:55:00,
2013-04-08 05:56:00,43.1,32.2,30.16,NW,316,0.0,0.0,65,0.00,,SKC,0.00,VWS V13.01,2013-04-08 09:56:00,
2013-04-08 05:57:00,43.1,32.2,30.16,NW,316,0.0,0.0,65,0.00,,SKC,0.00,VWS V13.01,2013-04-08 09:57:00,
2013-04-08 05:58:00,43.1,32.2,30.16,NW,316,0.0,0.0,65,0.00,,SKC,0.00,VWS V13.01,2013-04-08 09:58:00,
2013-04-08 05:59:00,43.1,32.2,30.16,NW,316,0.0,0.0,65,0.00,,SKC,0.00,VWS V13.01,2013-04-08 09:59:00,
2013-04-08 06:00:00,42.9,32.0,30.16,NW,316,0.8,0.8,65,0.00,,SKC,0.00,VWS V13.01,2013-04-08 10:00:00,
2013-04-08 06:01:00,42.9,32.0,30.16,NW,316,0.8,0.8,65,0.00,,SKC,0.00,VWS V13.01,2013-04-08 10:01:00,
2013-04-08 06:02:00,42.9,32.0,30.16,NW,316,0.0,0.8,65,0.00,,SKC,0.00,VWS V13.01,2013-04-08 10:02:00,
2013-04-08 06:03:00,42.9,32.0,30.16,NW,316,0.0,0.0,65,0.00,,SKC,0.00,VWS V13.01,2013-04-08 10:03:00,
2013-04-08 06:04:00,42.9,32.0,30.16,NW,316,0.0,0.0,65,0.00,,SKC,0.00,VWS V13.01,2013-04-08 10:04:00,
2013-04-08 06:05:00,42.9,32.0,30.17,NE,46,0.8,0.8,65,0.00,,SKC,0.00,VWS V13.01,2013-04-08 10:05:00,
2013-04-08 06:06:00,42.9,32.0,30.17,NE,46,0.8,0.8,65,0.00,,SKC,0.00,VWS V13.01,2013-04-08 10:06:00,
2013-04-08 06:07:00,42.6,31.7,30.17,NE,46,0.0,0.8,65,0.00,,SKC,0.00,VWS V13.01,2013-04-08 10:07:00,
2013-04-08 06:08:00,42.6,31.7,30.17,NE,46,0.0,0.0,65,0.00,,SKC,0.00,VWS V13.01,2013-04-08 10:08:00,
2013-04-08 06:09:00,42.6,31.7,30.17,NNE,24,0.0,0.0,65,0.00,,SKC,0.00,VWS V13.01,2013-04-08 10:09:00,
2013-04-08 06:10:00,42.6,31.7,30.17,NNE,24,0.0,0.0,65,0.00,,SKC,0.00,VWS V13.01,2013-04-08 10:10:00,
2013-04-08 06:11:00,42.6,31.7,30.17,NNE,24,0.0,0.0,65,0.00,,SKC,0.00,VWS V13.01,2013-04-08 10:11:00,
2013-04-08 06:12:00,42.6,31.7,30.17,NNE,24,0.0,0.0,65,0.00,,SKC,0.00,VWS V13.01,2013-04-08 10:12:00,
2013-04-08 06:13:00,42.4,31.5,30.17,NNE,24,0.0,0.0,65,0.00,,SKC,0.00,VWS V13.01,2013-04-08 10:13:00,
2013-04-08 06:14:00,42.4,31.5,30.18,NNE,24,0.0,0.0,65,0.00,,SKC,0.00,VWS V13.01,2013-04-08 10:14:00,
2013-04-08 06:15:00,42.4,31.9,30.18,NW,316,0.0,0.0,66,0.00,,SKC,0.00,VWS V13.01,2013-04-08 10:15:00,
2013-04-08 06:16:00,42.4,31.9,30.18,NW,316,0.0,0.0,66,0.00,,SKC,0.00,VWS V13.01,2013-04-08 10:16:00,
2013-04-08 06:17:00,42.4,31.9,30.18,WNW,294,0.0,0.0,66,0.00,,SKC,0.00,VWS V13.01,2013-04-08 10:17:00,
2013-04-08 06:18:00,42.4,31.9,30.18,WNW,294,0.0,0.0,66,0.00,,SKC,0.00,VWS V13.01,2013-04-08 10:18:00,
2013-04-08 06:19:00,42.4,31.9,30.18,WNW,294,0.0,0.0,66,0.00,,SKC,0.00,VWS V13.01,2013-04-08 10:19:00,
2013-04-08 06:20:00,42.4,31.9,30.18,NE,46,1.3,1.3,66,0.00,,SKC,0.00,VWS V13.01,2013-04-08 10:20:00,
2013-04-08 06:21:00,42.4,31.9,30.18,NE,46,1.3,1.3,66,0.00,,SKC,0.00,VWS V13.01,2013-04-08 10:21:00,
2013-04-08 06:22:00,42.0,31.5,30.18,NNE,24,0.0,1.3,66,0.00,,SKC,0.00,VWS V13.01,2013-04-08 10:22:00,
2013-04-08 06:23:00,42.0,31.5,30.18,NNE,24,0.0,0.0,66,0.00,,SKC,0.00,VWS V13.01,2013-04-08 10:23:00,
2013-04-08 06:24:00,42.2,31.7,30.18,NE,46,1.7,1.7,66,0.00,,SKC,0.00,VWS V13.01,2013-04-08 10:24:00,
2013-04-08 06:25:00,42.2,31.7,30.18,NE,46,1.7,1.7,66,0.00,,SKC,0.00,VWS V13.01,2013-04-08 10:25:00,
2013-04-08 06:26:00,42.4,31.9,30.18,NE,46,0.0,1.7,66,0.00,,SKC,0.00,VWS V13.01,2013-04-08 10:26:00,
2013-04-08 06:27:00,42.4,31.9,30.18,NE,46,0.0,0.0,66,0.00,,SKC,0.00,VWS V13.01,2013-04-08 10:27:00,
2013-04-08 06:28:00,42.4,31.9,30.18,NE,46,0.0,0.0,66,0.00,,SKC,0.00,VWS V13.01,2013-04-08 10:28:00,
2013-04-08 06:29:00,42.2,31.7,30.18,NE,46,0.0,0.0,66,0.00,,SKC,0.00,VWS V13.01,2013-04-08 10:29:00,
2013-04-08 06:30:00,42.4,31.9,30.18,NNE,24,0.0,0.0,66,0.00,,SKC,0.00,VWS V13.01,2013-04-08 10:30:00,
2013-04-08 06:31:00,42.4,31.9,30.18,NNE,24,0.0,0.0,66,0.00,,SKC,0.00,VWS V13.01,2013-04-08 10:31:00,
2013-04-08 06:32:00,42.4,31.9,30.18,NE,46,1.3,1.3,66,0.00,,SKC,0.00,VWS V13.01,2013-04-08 10:32:00,
2013-04-08 06:33:00,42.4,31.9,30.18,NE,46,1.3,1.3,66,0.00,,SKC,0.00,VWS V13.01,2013-04-08 10:33:00,
2013-04-08 06:34:00,42.4,31.9,30.18,NE,46,1.3,1.3,66,0.00,,SKC,0.00,VWS V13.01,2013-04-08 10:34:00,
2013-04-08 06:35:00,42.4,31.9,30.18,NE,46,0.0,1.3,66,0.00,,SKC,0.00,VWS V13.01,2013-04-08 10:35:00,
2013-04-08 06:36:00,42.4,31.9,30.19,NE,46,0.0,0.0,66,0.00,,SKC,0.00,VWS V13.01,2013-04-08 10:36:00,
2013-04-08 06:37:00,42.4,31.9,30.19,NE,46,0.0,0.0,66,0.00,,SKC,0.00,VWS V13.01,2013-04-08 10:37:00,
2013-04-08 06:38:00,42.4,31.9,30.19,NE,46,0.0,0.0,66,0.00,,SKC,0.00,VWS V13.01,2013-04-08 10:38:00,
2013-04-08 06:39:00,42.4,31.9,30.19,NNE,24,0.8,0.8,66,0.00,,SKC,0.00,VWS V13.01,2013-04-08 10:39:00,
2013-04-08 06:40:00,42.4,31.9,30.19,NNE,24,0.8,0.8,66,0.00,,SKC,0.00,VWS V13.01,2013-04-08 10:40:00,
2013-04-08 06:41:00,42.4,31.9,30.19,NW,316,0.0,0.8,66,0.00,,SKC,0.00,VWS V13.01,2013-04-08 10:41:00,
2013-04-08 06:42:00,42.4,31.9,30.19,NW,316,0.0,0.0,66,0.00,,SKC,0.00,VWS V13.01,2013-04-08 10:42:00,
2013-04-08 06:43:00,42.4,31.9,30.19,NNW,338,0.0,0.0,66,0.00,,SKC,0.00,VWS V13.01,2013-04-08 10:43:00,
2013-04-08 06:44:00,42.4,31.9,30.19,NNW,338,0.0,0.0,66,0.00,,SKC,0.00,VWS V13.01,2013-04-08 10:44:00,
2013-04-08 06:45:00,42.4,31.9,30.20,NW,316,0.0,0.0,66,0.00,,SKC,0.00,VWS V13.01,2013-04-08 10:45:00,
2013-04-08 06:46:00,42.4,31.9,30.19,NW,316,0.0,0.0,66,0.00,,SKC,0.00,VWS V13.01,2013-04-08 10:46:00,
2013-04-08 06:47:00,42.2,31.7,30.19,North,1,0.0,0.0,66,0.00,,SKC,0.00,VWS V13.01,2013-04-08 10:47:00,
2013-04-08 06:48:00,42.2,31.7,30.20,North,1,0.0,0.0,66,0.00,,SKC,0.00,VWS V13.01,2013-04-08 10:48:00,
2013-04-08 06:49:00,42.2,31.7,30.20,North,1,0.0,0.0,66,0.00,,SKC,0.00,VWS V13.01,2013-04-08 10:49:00,
2013-04-08 06:50:00,42.2,31.7,30.20,ENE,68,1.7,1.7,66,0.00,,SKC,0.00,VWS V13.01,2013-04-08 10:50:00,
2013-04-08 06:51:00,42.2,31.7,30.20,ENE,68,1.7,1.7,66,0.00,,SKC,0.00,VWS V13.01,2013-04-08 10:51:00,
2013-04-08 06:52:00,42.0,31.5,30.20,NNE,24,0.0,1.7,66,0.00,,SKC,0.00,VWS V13.01,2013-04-08 10:52:00,
2013-04-08 06:53:00,42.0,31.5,30.20,NNE,24,0.0,0.0,66,0.00,,SKC,0.00,VWS V13.01,2013-04-08 10:53:00,
2013-04-08 06:54:00,42.0,31.9,30.20,WNW,294,0.0,0.0,67,0.00,,SKC,0.00,VWS V13.01,2013-04-08 10:54:00,
2013-04-08 06:55:00,42.0,31.9,30.20,WNW,294,0.0,0.0,67,0.00,,SKC,0.00,VWS V13.01,2013-04-08 10:55:00,
2013-04-08 06:56:00,42.0,31.5,30.20,NE,46,1.1,1.1,66,0.00,,SKC,0.00,VWS V13.01,2013-04-08 10:56:00,
2013-04-08 06:57:00,42.0,31.5,30.20,NE,46,1.1,1.1,66,0.00,,SKC,0.00,VWS V13.01,2013-04-08 10:57:00,
2013-04-08 06:58:00,42.0,31.5,30.20,NNE,24,0.0,0.0,66,0.00,,SKC,0.00,VWS V13.01,2013-04-08 10:58:00,
2013-04-08 06:59:00,42.0,31.5,30.20,NNE,24,0.0,0.0,66,0.00,,SKC,0.00,VWS V13.01,2013-04-08 10:59:00,
2013-04-08 07:00:00,42.0,31.5,30.20,ENE,68,0.0,0.0,66,0.00,,SKC,0.00,VWS V13.01,2013-04-08 11:00:00,
2013-04-08 07:01:00,42.0,31.5,30.20,ENE,68,0.0,0.0,66,0.00,,SKC,0.00,VWS V13.01,2013-04-08 11:01:00,
2013-04-08 07:02:00,42.0,31.5,30.21,NE,46,0.0,0.0,66,0.00,,SKC,0.00,VWS V13.01,2013-04-08 11:02:00,
2013-04-08 07:03:00,42.0,31.5,30.21,NE,46,0.0,0.0,66,0.00,,SKC,0.00,VWS V13.01,2013-04-08 11:03:00,
2013-04-08 07:04:00,42.0,31.5,30.21,NE,46,0.0,0.0,66,0.00,,SKC,0.00,VWS V13.01,2013-04-08 11:04:00,
2013-04-08 07:05:00,42.4,31.9,30.21,SE,136,0.0,0.0,66,0.00,,SKC,0.00,VWS V13.01,2013-04-08 11:05:00,
2013-04-08 07:06:00,42.4,31.9,30.21,SE,136,0.0,0.0,66,0.00,,SKC,0.00,VWS V13.01,2013-04-08 11:06:00,
2013-04-08 07:07:00,42.0,31.5,30.21,ESE,114,0.0,0.0,66,0.00,,SKC,0.00,VWS V13.01,2013-04-08 11:07:00,
2013-04-08 07:08:00,42.0,31.5,30.21,ESE,114,0.0,0.0,66,0.00,,SKC,0.00,VWS V13.01,2013-04-08 11:08:00,
2013-04-08 07:09:00,42.0,31.5,30.21,North,1,0.0,0.0,66,0.00,,SKC,0.00,VWS V13.01,2013-04-08 11:09:00,
2013-04-08 07:10:00,42.0,31.5,30.21,North,1,0.0,0.0,66,0.00,,SKC,0.00,VWS V13.01,2013-04-08 11:10:00,
2013-04-08 07:11:00,42.0,31.5,30.22,NW,316,0.0,0.0,66,0.00,,SKC,0.00,VWS V13.01,2013-04-08 11:11:00,
2013-04-08 07:12:00,42.0,31.5,30.21,NW,316,0.0,0.0,66,0.00,,SKC,0.00,VWS V13.01,2013-04-08 11:12:00,
2013-04-08 07:13:00,42.0,31.5,30.21,SE,136,0.0,0.0,66,0.00,,SKC,0.00,VWS V13.01,2013-04-08 11:13:00,
2013-04-08 07:14:00,42.0,31.5,30.21,SE,136,0.0,0.0,66,0.00,,SKC,0.00,VWS V13.01,2013-04-08 11:14:00,
2013-04-08 07:15:00,42.2,31.7,30.21,ENE,68,0.0,0.0,66,0.00,,SKC,0.00,VWS V13.01,2013-04-08 11:15:00,
2013-04-08 07:16:00,42.2,31.7,30.21,ENE,68,0.0,0.0,66,0.00,,SKC,0.00,VWS V13.01,2013-04-08 11:16:00,
2013-04-08 07:17:00,42.4,32.2,30.21,NNW,338,0.0,0.0,67,0.00,,SKC,0.00,VWS V13.01,2013-04-08 11:17:00,
2013-04-08 07:18:00,42.4,32.2,30.21,NNW,338,0.0,0.0,67,0.00,,SKC,0.00,VWS V13.01,2013-04-08 11:18:00,
2013-04-08 07:19:00,42.4,32.2,30.21,NNW,338,0.0,0.0,67,0.00,,SKC,0.00,VWS V13.01,2013-04-08 11:19:00,
2013-04-08 07:20:00,42.4,31.9,30.21,ENE,68,1.3,1.3,66,0.00,,SKC,0.00,VWS V13.01,2013-04-08 11:20:00,
2013-04-08 07:21:00,42.4,31.9,30.21,ENE,68,1.3,1.3,66,0.00,,SKC,0.00,VWS V13.01,2013-04-08 11:21:00,
2013-04-08 07:22:00,42.4,31.9,30.22,NE,46,0.0,1.3,66,0.00,,SKC,0.00,VWS V13.01,2013-04-08 11:22:00,
2013-04-08 07:23:00,42.4,31.9,30.22,NE,46,0.0,0.0,66,0.00,,SKC,0.00,VWS V13.01,2013-04-08 11:23:00,
2013-04-08 07:24:00,42.4,31.9,30.22,NNW,338,0.0,0.0,66,0.00,,SKC,0.00,VWS V13.01,2013-04-08 11:24:00,
2013-04-08 07:25:00,42.4,31.9,30.22,NNW,338,0.0,0.0,66,0.00,,SKC,0.00,VWS V13.01,2013-04-08 11:25:00,
2013-04-08 07:26:00,42.4,31.9,30.22,East,91,0.2,0.2,66,0.00,,SKC,0.00,VWS V13.01,2013-04-08 11:26:00,
2013-04-08 07:27:00,42.4,31.9,30.22,East,91,0.2,0.2,66,0.00,,SKC,0.00,VWS V13.01,2013-04-08 11:27:00,
2013-04-08 07:28:00,42.4,31.9,30.22,ESE,114,0.0,0.0,66,0.00,,SKC,0.00,VWS V13.01,2013-04-08 11:28:00,
2013-04-08 07:29:00,42.4,31.9,30.22,ESE,114,0.0,0.0,66,0.00,,SKC,0.00,VWS V13.01,2013-04-08 11:29:00,
2013-04-08 07:30:00,42.4,31.9,30.22,NE,46,0.0,0.0,66,0.00,,SKC,0.00,VWS V13.01,2013-04-08 11:30:00,
2013-04-08 07:31:00,42.4,31.9,30.23,NE,46,0.0,0.0,66,0.00,,SKC,0.00,VWS V13.01,2013-04-08 11:31:00,
2013-04-08 07:32:00,42.4,31.9,30.23,WNW,294,0.0,0.0,66,0.00,,SKC,0.00,VWS V13.01,2013-04-08 11:32:00,
2013-04-08 07:33:00,42.4,31.9,30.23,WNW,294,0.0,0.0,66,0.00,,SKC,0.00,VWS V13.01,2013-04-08 11:33:00,
2013-04-08 07:34:00,42.4,31.9,30.23,WNW,294,0.0,0.0,66,0.00,,SKC,0.00,VWS V13.01,2013-04-08 11:34:00,
2013-04-08 07:35:00,42.4,31.9,30.23,WNW,294,0.0,0.0,66,0.00,,SKC,0.00,VWS V13.01,2013-04-08 11:35:00,
2013-04-08 07:36:00,42.4,31.9,30.23,WNW,294,0.0,0.0,66,0.00,,SKC,0.00,VWS V13.01,2013-04-08 11:36:00,
2013-04-08 07:37:00,42.4,31.9,30.23,WNW,294,0.0,0.0,66,0.00,,SKC,0.00,VWS V13.01,2013-04-08 11:37:00,
2013-04-08 07:38:00,42.4,31.9,30.23,WNW,294,0.0,0.0,66,0.00,,SKC,0.00,VWS V13.01,2013-04-08 11:38:00,
2013-04-08 07:39:00,42.6,32.0,30.23,NW,316,0.0,0.0,66,0.00,,SKC,0.00,VWS V13.01,2013-04-08 11:39:00,
2013-04-08 07:40:00,42.6,32.0,30.23,NW,316,0.0,0.0,66,0.00,,SKC,0.00,VWS V13.01,2013-04-08 11:40:00,
2013-04-08 07:41:00,42.6,32.0,30.23,NNE,24,0.0,0.0,66,0.00,,SKC,0.00,VWS V13.01,2013-04-08 11:41:00,
2013-04-08 07:42:00,42.6,32.0,30.23,NNE,24,0.0,0.0,66,0.00,,SKC,0.00,VWS V13.01,2013-04-08 11:42:00,
2013-04-08 07:43:00,42.6,31.7,30.23,NW,316,4.4,4.4,65,0.00,,SKC,0.00,VWS V13.01,2013-04-08 11:43:00,
2013-04-08 07:44:00,42.6,31.7,30.23,NW,316,4.4,4.4,65,0.00,,SKC,0.00,VWS V13.01,2013-04-08 11:44:00,
2013-04-08 07:45:00,42.6,31.7,30.23,ENE,68,0.0,4.4,65,0.00,,SKC,0.00,VWS V13.01,2013-04-08 11:45:00,
2013-04-08 07:46:00,42.6,31.7,30.23,ENE,68,0.0,0.0,65,0.00,,SKC,0.00,VWS V13.01,2013-04-08 11:46:00,
2013-04-08 07:47:00,42.6,31.7,30.23,NE,46,1.1,1.1,65,0.00,,SKC,0.00,VWS V13.01,2013-04-08 11:47:00,
2013-04-08 07:48:00,42.6,31.7,30.23,NE,46,1.1,1.1,65,0.00,,SKC,0.00,VWS V13.01,2013-04-08 11:48:00,
2013-04-08 07:49:00,42.6,31.7,30.23,NE,46,1.1,1.1,65,0.00,,SKC,0.00,VWS V13.01,2013-04-08 11:49:00,
2013-04-08 07:50:00,42.6,31.7,30.24,NE,46,1.3,1.3,65,0.00,,SKC,0.00,VWS V13.01,2013-04-08 11:50:00,
2013-04-08 07:51:00,42.6,31.7,30.24,NE,46,1.3,1.3,65,0.00,,SKC,0.00,VWS V13.01,2013-04-08 11:51:00,
2013-04-08 07:52:00,42.6,31.7,30.24,NNE,24,3.5,3.5,65,0.00,,SKC,0.00,VWS V13.01,2013-04-08 11:52:00,
2013-04-08 07:53:00,42.6,31.7,30.24,NNE,24,3.5,3.5,65,0.00,,SKC,0.00,VWS V13.01,2013-04-08 11:53:00,
2013-04-08 07:54:00,42.4,31.5,30.24,NNE,24,2.0,3.5,65,0.00,,SKC,0.00,VWS V13.01,2013-04-08 11:54:00,
2013-04-08 07:55:00,42.4,31.5,30.24,NNE,24,2.0,2.0,65,0.00,,SKC,0.00,VWS V13.01,2013-04-08 11:55:00,
2013-04-08 07:56:00,42.4,31.5,30.24,ENE,68,0.0,2.0,65,0.00,,SKC,0.00,VWS V13.01,2013-04-08 11:56:00,
2013-04-08 07:57:00,42.4,31.5,30.24,ENE,68,0.0,0.0,65,0.00,,SKC,0.00,VWS V13.01,2013-04-08 11:57:00,
2013-04-08 07:58:00,42.4,31.5,30.24,NE,46,0.6,0.6,65,0.00,,SKC,0.00,VWS V13.01,2013-04-08 11:58:00,
2013-04-08 07:59:00,42.4,31.5,30.24,NE,46,0.6,0.6,65,0.00,,SKC,0.00,VWS V13.01,2013-04-08 11:59:00,
2013-04-08 08:00:00,42.4,31.5,30.24,NE,46,2.0,2.0,65,0.00,,SKC,0.00,VWS V13.01,2013-04-08 12:00:00,
2013-04-08 08:01:00,42.4,31.5,30.24,NE,46,2.0,2.0,65,0.00,,SKC,0.00,VWS V13.01,2013-04-08 12:01:00,
2013-04-08 08:02:00,42.4,31.5,30.25,WNW,294,0.0,2.0,65,0.00,,SKC,0.00,VWS V13.01,2013-04-08 12:02:00,
2013-04-08 08:03:00,42.4,31.5,30.24,WNW,294,0.0,0.0,65,0.00,,SKC,0.00,VWS V13.01,2013-04-08 12:03:00,
2013-04-08 08:04:00,42.2,31.3,30.24,NE,46,0.6,0.6,65,0.00,,SKC,0.00,VWS V13.01,2013-04-08 12:04:00,
2013-04-08 08:05:00,42.2,31.3,30.24,NE,46,0.6,0.6,65,0.00,,SKC,0.00,VWS V13.01,2013-04-08 12:05:00,
2013-04-08 08:06:00,42.2,31.3,30.24,NE,46,0.6,0.6,65,0.00,,SKC,0.00,VWS V13.01,2013-04-08 12:06:00,
2013-04-08 08:09:00,42.0,31.1,30.24,NE,46,0.0,1.5,65,0.00,,SKC,0.00,VWS V13.01,2013-04-08 12:09:00,
2013-04-08 08:10:00,42.0,31.1,30.24,NE,46,0.0,0.0,65,0.00,,SKC,0.00,VWS V13.01,2013-04-08 12:10:00,
2013-04-08 08:11:00,42.0,31.1,30.25,North,1,0.0,0.0,65,0.00,,SKC,0.00,VWS V13.01,2013-04-08 12:11:00,
2013-04-08 08:12:00,42.0,31.1,30.25,North,1,0.0,0.0,65,0.00,,SKC,0.00,VWS V13.01,2013-04-08 12:12:00,
2013-04-08 08:13:00,42.0,30.7,30.25,NE,46,0.8,0.8,64,0.00,,SKC,0.00,VWS V13.01,2013-04-08 12:13:00,
2013-04-08 08:14:00,42.0,30.7,30.25,NE,46,0.8,0.8,64,0.00,,SKC,0.00,VWS V13.01,2013-04-08 12:14:00,
2013-04-08 08:15:00,42.0,30.7,30.25,NW,316,0.0,0.8,64,0.00,,SKC,0.00,VWS V13.01,2013-04-08 12:15:00,
2013-04-08 08:16:00,42.0,30.7,30.25,NW,316,0.0,0.0,64,0.00,,SKC,0.00,VWS V13.01,2013-04-08 12:16:00,
2013-04-08 08:17:00,41.9,30.6,30.25,ENE,68,1.1,1.1,64,0.00,,SKC,0.00,VWS V13.01,2013-04-08 12:17:00,
2013-04-08 08:18:00,41.9,30.6,30.25,ENE,68,1.1,1.1,64,0.00,,SKC,0.00,VWS V13.01,2013-04-08 12:18:00,
2013-04-08 08:19:00,41.9,30.6,30.25,NE,46,0.0,0.0,64,0.00,,SKC,0.00,VWS V13.01,2013-04-08 12:19:00,
2013-04-08 08:20:00,42.0,30.7,30.25,NE,46,0.0,0.0,64,0.00,,SKC,0.00,VWS V13.01,2013-04-08 12:20:00,
2013-04-08 08:21:00,42.0,30.7,30.25,NE,46,0.0,0.0,64,0.00,,SKC,0.00,VWS V13.01,2013-04-08 12:21:00,
2013-04-08 08:22:00,42.0,30.7,30.25,NNW,338,2.0,2.0,64,0.00,,SKC,0.00,VWS V13.01,2013-04-08 12:22:00,
2013-04-08 08:23:00,42.0,30.7,30.24,NNW,338,2.0,2.0,64,0.00,,SKC,0.00,VWS V13.01,2013-04-08 12:23:00,
2013-04-08 08:24:00,42.0,30.7,30.25,North,1,0.0,0.0,64,0.00,,SKC,0.00,VWS V13.01,2013-04-08 12:24:00,
2013-04-08 08:25:00,42.0,30.7,30.25,North,1,0.0,0.0,64,0.00,,SKC,0.00,VWS V13.01,2013-04-08 12:25:00,
2013-04-08 08:26:00,42.0,30.7,30.24,NNE,24,0.0,0.0,64,0.00,,SKC,0.00,VWS V13.01,2013-04-08 12:26:00,
2013-04-08 08:27:00,42.0,30.7,30.25,NNE,24,0.0,0.0,64,0.00,,SKC,0.00,VWS V13.01,2013-04-08 12:27:00,
2013-04-08 08:28:00,42.0,30.7,30.25,WNW,294,0.0,0.0,64,0.00,,SKC,0.00,VWS V13.01,2013-04-08 12:28:00,
2013-04-08 08:29:00,42.0,30.7,30.25,WNW,294,0.0,0.0,64,0.00,,SKC,0.00,VWS V13.01,2013-04-08 12:29:00,
2013-04-08 08:30:00,42.4,31.1,30.26,NW,316,2.4,2.4,64,0.00,,SKC,0.00,VWS V13.01,2013-04-08 12:30:00,
2013-04-08 08:31:00,42.4,31.1,30.25,NW,316,2.4,2.4,64,0.00,,SKC,0.00,VWS V13.01,2013-04-08 12:31:00,
2013-04-08 08:32:00,42.4,31.1,30.25,WSW,248,0.0,2.4,64,0.00,,SKC,0.00,VWS V13.01,2013-04-08 12:32:00,
2013-04-08 08:33:00,42.4,31.1,30.26,WSW,248,0.0,0.0,64,0.00,,SKC,0.00,VWS V13.01,2013-04-08 12:33:00,
2013-04-08 08:34:00,42.4,31.1,30.25,NNE,24,0.0,0.0,64,0.00,,SKC,0.00,VWS V13.01,2013-04-08 12:34:00,
2013-04-08 08:35:00,42.4,31.1,30.25,NNE,24,0.0,0.0,64,0.00,,SKC,0.00,VWS V13.01,2013-04-08 12:35:00,
2013-04-08 08:36:00,42.4,31.1,30.25,NNE,24,0.0,0.0,64,0.00,,SKC,0.00,VWS V13.01,2013-04-08 12:36:00,
2013-04-08 08:37:00,42.4,31.1,30.26,East,91,0.0,0.0,64,0.00,,SKC,0.00,VWS V13.01,2013-04-08 12:37:00,
2013-04-08 08:38:00,42.4,31.1,30.25,East,91,0.0,0.0,64,0.00,,SKC,0.00,VWS V13.01,2013-04-08 12:38:00,
2013-04-08 08:39:00,42.4,31.1,30.26,East,91,0.0,0.0,64,0.00,,SKC,0.00,VWS V13.01,2013-04-08 12:39:00,
2013-04-08 08:40:00,42.4,31.1,30.26,East,91,0.0,0.0,64,0.00,,SKC,0.00,VWS V13.01,2013-04-08 12:40:00,
2013-04-08 08:41:00,42.6,31.3,30.25,NNW,338,0.0,0.0,64,0.00,,SKC,0.00,VWS V13.01,2013-04-08 12:41:00,
2013-04-08 08:42:00,42.6,31.3,30.25,NNW,338,0.0,0.0,64,0.00,,SKC,0.00,VWS V13.01,2013-04-08 12:42:00,
2013-04-08 08:43:00,42.6,31.3,30.25,ENE,68,0.0,0.0,64,0.00,,SKC,0.00,VWS V13.01,2013-04-08 12:43:00,
2013-04-08 08:44:00,42.6,31.3,30.25,ENE,68,0.0,0.0,64,0.00,,SKC,0.00,VWS V13.01,2013-04-08 12:44:00,
2013-04-08 08:45:00,42.6,31.3,30.25,ENE,68,0.0,0.0,64,0.00,,SKC,0.00,VWS V13.01,2013-04-08 12:45:00,
2013-04-08 08:46:00,42.6,30.9,30.26,NNE,24,0.0,0.0,63,0.00,,SKC,0.00,VWS V13.01,2013-04-08 12:46:00,
2013-04-08 08:47:00,42.6,30.9,30.26,NE,46,0.0,0.0,63,0.00,,SKC,0.00,VWS V13.01,2013-04-08 12:47:00,
2013-04-08 08:48:00,42.6,30.9,30.26,NE,46,0.0,0.0,63,0.00,,SKC,0.00,VWS V13.01,2013-04-08 12:48:00,
2013-04-08 08:49:00,42.6,30.9,30.26,NE,46,2.0,2.0,63,0.00,,SKC,0.00,VWS V13.01,2013-04-08 12:49:00,
2013-04-08 08:50:00,42.6,30.9,30.26,NE,46,2.0,2.0,63,0.00,,SKC,0.00,VWS V13.01,2013-04-08 12:50:00,
2013-04-08 08:51:00,42.6,30.9,30.26,NE,46,2.0,2.0,63,0.00,,SKC,0.00,VWS V13.01,2013-04-08 12:51:00,
2013-04-08 08:52:00,42.6,30.9,30.25,North,1,0.0,2.0,63,0.00,,SKC,0.00,VWS V13.01,2013-04-08 12:52:00,
2013-04-08 08:53:00,42.6,30.9,30.26,North,1,0.0,0.0,63,0.00,,SKC,0.00,VWS V13.01,2013-04-08 12:53:00,
2013-04-08 08:54:00,42.8,31.1,30.25,NNE,24,1.5,1.5,63,0.00,,SKC,0.00,VWS V13.01,2013-04-08 12:54:00,
2013-04-08 08:55:00,42.8,31.1,30.25,NNE,24,1.5,1.5,63,0.00,,SKC,0.00,VWS V13.01,2013-04-08 12:55:00,
2013-04-08 08:56:00,42.9,31.2,30.26,ENE,68,3.5,3.5,63,0.00,,SKC,0.00,VWS V13.01,2013-04-08 12:56:00,
2013-04-08 08:57:00,42.9,31.2,30.25,ENE,68,3.5,3.5,63,0.00,,SKC,0.00,VWS V13.01,2013-04-08 12:57:00,
2013-04-08 08:58:00,42.9,31.2,30.26,ENE,68,0.0,3.5,63,0.00,,SKC,0.00,VWS V13.01,2013-04-08 12:58:00,
2013-04-08 08:59:00,42.9,31.2,30.25,ENE,68,0.0,0.0,63,0.00,,SKC,0.00,VWS V13.01,2013-04-08 12:59:00,
2013-04-08 09:00:00,42.9,31.2,30.25,ENE,68,0.0,0.0,63,0.00,,SKC,0.00,VWS V13.01,2013-04-08 13:00:00,
2013-04-08 09:01:00,42.9,31.2,30.25,NE,46,0.0,0.0,63,0.00,,SKC,0.00,VWS V13.01,2013-04-08 13:01:00,
2013-04-08 09:02:00,42.9,31.2,30.25,North,1,0.0,0.0,63,0.00,,SKC,0.00,VWS V13.01,2013-04-08 13:02:00,
2013-04-08 09:03:00,42.9,31.2,30.25,North,1,0.0,0.0,63,0.00,,SKC,0.00,VWS V13.01,2013-04-08 13:03:00,
2013-04-08 09:04:00,42.9,31.2,30.26,NNW,338,0.0,0.0,63,0.00,,SKC,0.00,VWS V13.01,2013-04-08 13:04:00,
2013-04-08 09:05:00,43.1,31.4,30.25,NNW,338,0.0,0.0,63,0.00,,SKC,0.00,VWS V13.01,2013-04-08 13:05:00,
2013-04-08 09:06:00,43.1,31.4,30.25,NE,46,0.0,0.0,63,0.00,,SKC,0.00,VWS V13.01,2013-04-08 13:06:00,
2013-04-08 09:07:00,43.3,31.6,30.25,NE,46,0.0,0.0,63,0.00,,SKC,0.00,VWS V13.01,2013-04-08 13:07:00,
2013-04-08 09:08:00,43.3,31.6,30.26,NE,46,0.0,0.0,63,0.00,,SKC,0.00,VWS V13.01,2013-04-08 13:08:00,
2013-04-08 09:09:00,43.5,31.8,30.25,NE,46,0.0,0.0,63,0.00,,SKC,0.00,VWS V13.01,2013-04-08 13:09:00,
2013-04-08 09:10:00,43.5,31.8,30.25,NE,46,0.0,0.0,63,0.00,,SKC,0.00,VWS V13.01,2013-04-08 13:10:00,
2013-04-08 09:11:00,43.7,31.9,30.25,NE,46,0.0,0.0,63,0.00,,SKC,0.00,VWS V13.01,2013-04-08 13:11:00,
2013-04-08 09:12:00,43.7,31.9,30.25,NE,46,0.0,0.0,63,0.00,,SKC,0.00,VWS V13.01,2013-04-08 13:12:00,
2013-04-08 09:13:00,43.8,32.0,30.25,NE,46,0.0,0.0,63,0.00,,SKC,0.00,VWS V13.01,2013-04-08 13:13:00,
2013-04-08 09:14:00,43.8,32.0,30.25,NE,46,0.0,0.0,63,0.00,,SKC,0.00,VWS V13.01,2013-04-08 13:14:00,
2013-04-08 09:15:00,44.2,32.0,30.25,ENE,68,0.0,0.0,62,0.00,,SKC,0.00,VWS V13.01,2013-04-08 13:15:00,
2013-04-08 09:16:00,44.2,32.0,30.25,ENE,68,0.0,0.0,62,0.00,,SKC,0.00,VWS V13.01,2013-04-08 13:16:00,
2013-04-08 09:17:00,44.4,32.2,30.25,ENE,68,0.0,0.0,62,0.00,,SKC,0.00,VWS V13.01,2013-04-08 13:17:00,
2013-04-08 09:18:00,44.4,32.2,30.25,ENE,68,0.0,0.0,62,0.00,,SKC,0.00,VWS V13.01,2013-04-08 13:18:00,
2013-04-08 09:19:00,44.4,32.2,30.25,ENE,68,0.0,0.0,62,0.00,,SKC,0.00,VWS V13.01,2013-04-08 13:19:00,
2013-04-08 09:20:00,44.4,32.2,30.25,ENE,68,0.0,0.0,62,0.00,,SKC,0.00,VWS V13.01,2013-04-08 13:20:00,
2013-04-08 09:21:00,44.7,32.1,30.25,ESE,114,1.3,1.3,61,0.00,,SKC,0.00,VWS V13.01,2013-04-08 13:21:00,
2013-04-08 09:22:00,44.7,32.1,30.25,ESE,114,1.3,1.3,61,0.00,,SKC,0.00,VWS V13.01,2013-04-08 13:22:00,
2013-04-08 09:23:00,44.7,32.1,30.25,ESE,114,1.3,1.3,61,0.00,,SKC,0.00,VWS V13.01,2013-04-08 13:23:00,
2013-04-08 09:24:00,44.9,32.3,30.25,NNE,24,2.4,2.4,61,0.00,,SKC,0.00,VWS V13.01,2013-04-08 13:24:00,
2013-04-08 09:25:00,44.9,32.3,30.25,NNE,24,2.4,2.4,61,0.00,,SKC,0.00,VWS V13.01,2013-04-08 13:25:00,
2013-04-08 09:26:00,44.9,32.3,30.25,NE,46,0.0,2.4,61,0.00,,SKC,0.00,VWS V13.01,2013-04-08 13:26:00,
2013-04-08 09:27:00,44.9,32.3,30.25,NE,46,0.0,0.0,61,0.00,,SKC,0.00,VWS V13.01,2013-04-08 13:27:00,
2013-04-08 09:28:00,45.1,32.5,30.25,NE,46,0.0,0.0,61,0.00,,SKC,0.00,VWS V13.01,2013-04-08 13:28:00,
2013-04-08 09:29:00,45.1,32.5,30.25,NE,46,0.0,0.0,61,0.00,,SKC,0.00,VWS V13.01,2013-04-08 13:29:00,
2013-04-08 09:30:00,45.1,32.5,30.25,NE,46,1.3,1.3,61,0.00,,SKC,0.00,VWS V13.01,2013-04-08 13:30:00,
2013-04-08 09:31:00,45.1,32.5,30.25,NE,46,1.3,1.3,61,0.00,,SKC,0.00,VWS V13.01,2013-04-08 13:31:00,
2013-04-08 10:34:00,46.4,31.6,30.28,North,1,3.1,3.1,56,0.00,,SKC,0.00,VWS V13.01,2013-04-08 14:34:00,
2013-04-08 10:39:00,46.7,32.3,30.28,WNW,294,0.0,0.0,57,0.00,,SKC,0.00,VWS V13.01,2013-04-08 14:39:00,
2013-04-08 10:44:00,46.7,32.3,30.29,WNW,294,0.0,0.0,57,0.00,,SKC,0.00,VWS V13.01,2013-04-08 14:44:00,
2013-04-08 10:49:00,47.3,32.4,30.29,NW,316,2.0,2.0,56,0.00,,SKC,0.00,VWS V13.01,2013-04-08 14:49:00,
2013-04-08 10:54:00,47.8,32.9,30.29,NE,46,0.0,0.0,56,0.00,,SKC,0.00,VWS V13.01,2013-04-08 14:54:00,
2013-04-08 10:59:00,48.0,32.6,30.29,WNW,294,0.0,0.0,55,0.00,,SKC,0.00,VWS V13.01,2013-04-08 14:59:00,
2013-04-08 11:04:00,48.0,32.6,30.29,NNW,338,5.5,5.5,55,0.00,,SKC,0.00,VWS V13.01,2013-04-08 15:04:00,
2013-04-08 11:09:00,47.8,32.4,30.29,NE,46,0.6,0.6,55,0.00,,SKC,0.00,VWS V13.01,2013-04-08 15:09:00,
2013-04-08 11:14:00,47.8,32.4,30.29,SE,136,2.6,2.6,55,0.00,,SKC,0.00,VWS V13.01,2013-04-08 15:14:00,
2013-04-08 11:20:00,48.3,33.3,30.29,NNW,338,0.0,0.0,56,0.00,,SKC,0.00,VWS V13.01,2013-04-08 15:20:00,
2013-04-08 11:25:00,48.7,32.8,30.29,NW,316,0.8,0.8,54,0.00,,SKC,0.00,VWS V13.01,2013-04-08 15:25:00,
2013-04-08 11:30:00,49.1,33.2,30.29,NE,46,0.0,0.0,54,0.00,,SKC,0.00,VWS V13.01,2013-04-08 15:30:00,
2013-04-08 11:35:00,49.1,33.2,30.29,East,91,0.0,0.0,54,0.00,,SKC,0.00,VWS V13.01,2013-04-08 15:35:00,
2013-04-08 11:40:00,48.9,32.5,30.29,ENE,68,0.0,0.0,53,0.00,,SKC,0.00,VWS V13.01,2013-04-08 15:40:00,
2013-04-08 11:45:00,49.2,32.8,30.29,NW,316,0.0,0.0,53,0.00,,SKC,0.00,VWS V13.01,2013-04-08 15:45:00,
2013-04-08 11:50:00,49.6,33.2,30.29,NE,46,3.3,3.3,53,0.00,,SKC,0.00,VWS V13.01,2013-04-08 15:50:00,
2013-04-08 11:55:00,49.1,32.7,30.29,NNW,338,5.8,5.8,53,0.00,,SKC,0.00,VWS V13.01,2013-04-08 15:55:00,
2013-04-08 12:00:00,48.9,32.5,30.29,NE,46,0.0,0.0,53,0.00,,SKC,0.00,VWS V13.01,2013-04-08 16:00:00,
2013-04-08 12:05:00,49.2,32.8,30.28,ENE,68,0.0,0.0,53,0.00,,SKC,0.00,VWS V13.01,2013-04-08 16:05:00,
2013-04-08 12:10:00,49.1,32.7,30.28,ESE,114,2.9,2.9,53,0.00,,SKC,0.00,VWS V13.01,2013-04-08 16:10:00,
2013-04-08 12:15:00,49.2,32.8,30.28,ENE,68,0.0,0.0,53,0.00,,SKC,0.00,VWS V13.01,2013-04-08 16:15:00,
2013-04-08 12:20:00,49.4,33.0,30.28,NW,316,3.1,3.1,53,0.00,,SKC,0.00,VWS V13.01,2013-04-08 16:20:00,
2013-04-08 12:25:00,49.4,33.0,30.27,NNW,338,4.6,4.6,53,0.00,,SKC,0.00,VWS V13.01,2013-04-08 16:25:00,
2013-04-08 12:30:00,48.9,32.5,30.27,ENE,68,0.0,0.0,53,0.00,,SKC,0.00,VWS V13.01,2013-04-08 16:30:00,
2013-04-08 12:35:00,49.1,32.7,30.27,NNW,338,2.0,2.0,53,0.00,,SKC,0.00,VWS V13.01,2013-04-08 16:35:00,
2013-04-08 12:40:00,49.1,33.2,30.27,NNW,338,7.3,7.3,54,0.00,,SKC,0.00,VWS V13.01,2013-04-08 16:40:00,
2013-04-08 12:45:00,49.1,32.7,30.27,ESE,114,4.2,4.2,53,0.00,,SKC,0.00,VWS V13.01,2013-04-08 16:45:00,
2013-04-08 12:51:00,49.2,33.3,30.27,NNE,24,0.0,0.0,54,0.00,,SKC,0.00,VWS V13.01,2013-04-08 16:51:00,
2013-04-08 12:56:00,49.2,33.3,30.27,ESE,114,1.7,3.5,54,0.00,,SKC,0.00,VWS V13.01,2013-04-08 16:56:00,
2013-04-08 13:01:00,49.2,33.3,30.27,NE,46,0.0,0.0,54,0.00,,SKC,0.00,VWS V13.01,2013-04-08 17:01:00,
2013-04-08 13:06:00,49.4,33.0,30.27,WNW,294,2.0,2.9,53,0.00,,SKC,0.00,VWS V13.01,2013-04-08 17:06:00,
2013-04-08 13:11:00,49.2,32.8,30.27,NNE,24,5.1,5.1,53,0.00,,SKC,0.00,VWS V13.01,2013-04-08 17:11:00,
2013-04-08 13:16:00,48.9,33.0,30.27,NNW,338,6.7,6.7,54,0.00,,SKC,0.00,VWS V13.01,2013-04-08 17:16:00,
2013-04-08 13:21:00,49.1,32.7,30.27,NE,46,0.0,0.0,53,0.00,,SKC,0.00,VWS V13.01,2013-04-08 17:21:00,
2013-04-08 13:26:00,49.1,32.7,30.27,ESE,114,2.6,2.6,53,0.00,,SKC,0.00,VWS V13.01,2013-04-08 17:26:00,
2013-04-08 13:31:00,49.1,33.2,30.27,ENE,68,0.0,0.0,54,0.00,,SKC,0.00,VWS V13.01,2013-04-08 17:31:00,
2013-04-08 13:36:00,49.2,33.3,30.27,ESE,114,0.0,0.0,54,0.00,,SKC,0.00,VWS V13.01,2013-04-08 17:36:00,
2013-04-08 13:41:00,49.6,33.7,30.26,East,91,6.0,6.0,54,0.00,,SKC,0.00,VWS V13.01,2013-04-08 17:41:00,
2013-04-08 13:46:00,49.8,33.8,30.26,NE,46,2.9,2.9,54,0.00,,SKC,0.00,VWS V13.01,2013-04-08 17:46:00,
2013-04-08 13:51:00,50.1,33.7,30.26,East,91,0.0,0.0,53,0.00,,SKC,0.00,VWS V13.01,2013-04-08 17:51:00,
2013-04-08 13:57:00,50.0,33.6,30.26,ESE,114,0.0,0.0,53,0.00,,SKC,0.00,VWS V13.01,2013-04-08 17:57:00,
2013-04-08 14:02:00,50.0,33.6,30.26,NNE,24,0.0,0.6,53,0.00,,SKC,0.00,VWS V13.01,2013-04-08 18:02:00,
2013-04-08 14:07:00,50.1,33.7,30.25,NW,316,3.8,3.8,53,0.00,,SKC,0.00,VWS V13.01,2013-04-08 18:07:00,
2013-04-08 14:12:00,50.1,33.7,30.25,NNW,338,4.0,4.0,53,0.00,,SKC,0.00,VWS V13.01,2013-04-08 18:12:00,
2013-04-08 14:17:00,49.8,32.9,30.25,NE,46,0.0,4.4,52,0.00,,SKC,0.00,VWS V13.01,2013-04-08 18:17:00,
2013-04-08 14:22:00,50.0,33.6,30.25,NW,316,1.7,1.7,53,0.00,,SKC,0.00,VWS V13.01,2013-04-08 18:22:00,
2013-04-08 14:27:00,49.8,32.9,30.25,NNW,338,2.9,2.9,52,0.00,,SKC,0.00,VWS V13.01,2013-04-08 18:27:00,
2013-04-08 14:32:00,49.8,33.4,30.25,ESE,114,4.0,4.0,53,0.00,,SKC,0.00,VWS V13.01,2013-04-08 18:32:00,
2013-04-08 14:37:00,50.1,33.7,30.25,NNW,338,1.7,1.7,53,0.00,,SKC,0.00,VWS V13.01,2013-04-08 18:37:00,
2013-04-08 14:42:00,50.3,33.8,30.26,NW,316,5.8,5.8,53,0.00,,SKC,0.00,VWS V13.01,2013-04-08 18:42:00,
2013-04-08 14:47:00,50.5,34.0,30.26,NW,316,0.6,0.6,53,0.00,,SKC,0.00,VWS V13.01,2013-04-08 18:47:00,
2013-04-08 14:52:00,50.7,34.2,30.26,SE,136,0.0,0.0,53,0.00,,SKC,0.00,VWS V13.01,2013-04-08 18:52:00,
2013-04-08 14:57:00,50.7,34.2,30.25,ENE,68,2.2,2.2,53,0.00,,SKC,0.00,VWS V13.01,2013-04-08 18:57:00,
2013-04-08 15:02:00,50.7,33.7,30.25,NE,46,2.6,2.6,52,0.00,,SKC,0.00,VWS V13.01,2013-04-08 19:02:00,
2013-04-08 15:07:00,50.5,33.5,30.24,NE,46,0.4,0.4,52,0.00,,SKC,0.00,VWS V13.01,2013-04-08 19:07:00,
2013-04-08 15:12:00,50.5,34.0,30.25,NNW,338,5.8,5.8,53,0.00,,SKC,0.00,VWS V13.01,2013-04-08 19:12:00,
2013-04-08 15:17:00,50.7,33.7,30.25,NW,316,0.0,0.0,52,0.00,,SKC,0.00,VWS V13.01,2013-04-08 19:17:00,
2013-04-08 15:22:00,50.5,33.5,30.24,NW,316,0.0,0.0,52,0.00,,SKC,0.00,VWS V13.01,2013-04-08 19:22:00,
2013-04-08 15:27:00,50.7,33.7,30.24,NW,316,3.5,3.5,52,0.00,,SKC,0.00,VWS V13.01,2013-04-08 19:27:00,
2013-04-08 15:32:00,50.7,33.7,30.24,NNW,338,0.0,0.0,52,0.00,,SKC,0.00,VWS V13.01,2013-04-08 19:32:00,
2013-04-08 15:37:00,50.7,33.7,30.23,NNW,338,0.0,0.0,52,0.00,,SKC,0.00,VWS V13.01,2013-04-08 19:37:00,
2013-04-08 15:42:00,50.9,33.9,30.23,NW,316,1.7,1.7,52,0.00,,SKC,0.00,VWS V13.01,2013-04-08 19:42:00,
2013-04-08 15:47:00,51.2,34.2,30.23,NW,316,2.4,2.4,52,0.00,,SKC,0.00,VWS V13.01,2013-04-08 19:47:00,
2013-04-08 15:52:00,51.2,34.2,30.22,NE,46,0.6,0.6,52,0.00,,SKC,0.00,VWS V13.01,2013-04-08 19:52:00,
2013-04-08 15:57:00,51.6,34.1,30.22,NNW,338,0.2,0.2,51,0.00,,SKC,0.00,VWS V13.01,2013-04-08 19:57:00,
2013-04-08 16:02:00,51.6,34.1,30.22,NE,46,0.0,0.0,51,0.00,,SKC,0.00,VWS V13.01,2013-04-08 20:02:00,
2013-04-08 16:07:00,51.6,34.1,30.22,NNW,338,0.0,0.0,51,0.00,,SKC,0.00,VWS V13.01,2013-04-08 20:07:00,
2013-04-08 16:12:00,51.6,34.1,30.22,NW,316,4.4,4.4,51,0.00,,SKC,0.00,VWS V13.01,2013-04-08 20:12:00,
2013-04-08 16:17:00,51.6,34.1,30.22,NNW,338,0.0,0.0,51,0.00,,SKC,0.00,VWS V13.01,2013-04-08 20:17:00,
2013-04-08 16:22:00,51.8,34.3,30.21,NW,316,0.0,0.0,51,0.00,,SKC,0.00,VWS V13.01,2013-04-08 20:22:00,
2013-04-08 16:27:00,51.9,33.9,30.21,WNW,294,0.0,0.0,50,0.00,,SKC,0.00,VWS V13.01,2013-04-08 20:27:00,
2013-04-08 16:32:00,52.1,34.0,30.20,North,1,0.0,0.0,50,0.00,,SKC,0.00,VWS V13.01,2013-04-08 20:32:00,
2013-04-08 16:37:00,52.3,34.2,30.20,NNW,338,5.3,5.3,50,0.00,,SKC,0.00,VWS V13.01,2013-04-08 20:37:00,
2013-04-08 16:43:00,52.1,34.0,30.20,NW,316,4.0,4.0,50,0.00,,SKC,0.00,VWS V13.01,2013-04-08 20:43:00,
2013-04-08 16:48:00,52.3,34.2,30.20,North,1,2.6,2.6,50,0.00,,SKC,0.00,VWS V13.01,2013-04-08 20:48:00,
2013-04-08 16:53:00,52.1,34.0,30.20,NW,316,4.6,4.6,50,0.00,,SKC,0.00,VWS V13.01,2013-04-08 20:53:00,
2013-04-08 16:58:00,52.1,34.0,30.20,NW,316,2.9,2.9,50,0.00,,SKC,0.00,VWS V13.01,2013-04-08 20:58:00,
2013-04-08 17:03:00,52.1,34.0,30.20,NNW,338,0.0,0.0,50,0.00,,SKC,0.00,VWS V13.01,2013-04-08 21:03:00,
2013-04-08 17:08:00,51.9,33.9,30.20,NW,316,0.0,2.9,50,0.00,,SKC,0.00,VWS V13.01,2013-04-08 21:08:00,
2013-04-08 17:13:00,51.9,33.9,30.20,WNW,294,4.0,4.0,50,0.00,,SKC,0.00,VWS V13.01,2013-04-08 21:13:00,
2013-04-08 17:18:00,51.8,33.8,30.20,NNW,338,0.8,0.8,50,0.00,,SKC,0.00,VWS V13.01,2013-04-08 21:18:00,
2013-04-08 17:23:00,51.6,33.6,30.19,NNW,338,3.3,3.3,50,0.00,,SKC,0.00,VWS V13.01,2013-04-08 21:23:00,
2013-04-08 17:28:00,51.6,33.6,30.19,NW,316,0.6,0.6,50,0.00,,SKC,0.00,VWS V13.01,2013-04-08 21:28:00,
2013-04-08 17:33:00,51.4,33.4,30.19,NNW,338,1.1,1.1,50,0.00,,SKC,0.00,VWS V13.01,2013-04-08 21:33:00,
2013-04-08 17:38:00,51.4,33.4,30.19,North,1,0.0,0.0,50,0.00,,SKC,0.00,VWS V13.01,2013-04-08 21:38:00,
2013-04-08 17:43:00,51.4,33.4,30.19,NNW,338,2.4,2.4,50,0.00,,SKC,0.00,VWS V13.01,2013-04-08 21:43:00,
2013-04-08 17:48:00,51.2,33.2,30.19,NW,316,1.1,1.1,50,0.00,,SKC,0.00,VWS V13.01,2013-04-08 21:48:00,
2013-04-08 17:53:00,51.0,33.0,30.20,NW,316,2.6,2.6,50,0.00,,SKC,0.00,VWS V13.01,2013-04-08 21:53:00,
2013-04-08 17:58:00,50.7,33.2,30.19,NW,316,0.0,0.0,51,0.00,,SKC,0.00,VWS V13.01,2013-04-08 21:58:00,
2013-04-08 18:03:00,50.5,33.1,30.20,NW,316,0.0,0.0,51,0.00,,SKC,0.00,VWS V13.01,2013-04-08 22:03:00,
2013-04-08 18:08:00,50.3,32.9,30.20,WNW,294,0.6,0.6,51,0.00,,SKC,0.00,VWS V13.01,2013-04-08 22:08:00,
2013-04-08 18:13:00,50.1,32.7,30.19,WNW,294,0.0,0.0,51,0.00,,SKC,0.00,VWS V13.01,2013-04-08 22:13:00,
2013-04-08 18:18:00,49.8,32.4,30.19,NW,316,0.0,0.0,51,0.00,,SKC,0.00,VWS V13.01,2013-04-08 22:18:00,
2013-04-08 18:23:00,49.8,32.4,30.19,NW,316,0.0,0.0,51,0.00,,SKC,0.00,VWS V13.01,2013-04-08 22:23:00,
2013-04-08 18:28:00,49.6,32.7,30.19,ENE,68,1.1,1.1,52,0.00,,SKC,0.00,VWS V13.01,2013-04-08 22:28:00,
2013-04-08 18:33:00,49.2,31.9,30.19,NE,46,0.0,0.0,51,0.00,,SKC,0.00,VWS V13.01,2013-04-08 22:33:00,
2013-04-08 18:38:00,48.9,31.6,30.19,East,91,0.0,0.0,51,0.00,,SKC,0.00,VWS V13.01,2013-04-08 22:38:00,
2013-04-08 18:43:00,48.7,31.9,30.19,ENE,68,0.0,0.0,52,0.00,,SKC,0.00,VWS V13.01,2013-04-08 22:43:00,
2013-04-08 18:48:00,48.5,31.7,30.18,ENE,68,0.0,0.0,52,0.00,,SKC,0.00,VWS V13.01,2013-04-08 22:48:00,
2013-04-08 18:53:00,48.0,31.2,30.18,ENE,68,0.0,0.0,52,0.00,,SKC,0.00,VWS V13.01,2013-04-08 22:53:00,
2013-04-08 18:58:00,48.0,31.2,30.18,ENE,68,0.0,0.0,52,0.00,,SKC,0.00,VWS V13.01,2013-04-08 22:58:00,
2013-04-08 19:04:00,47.8,31.5,30.18,ENE,68,0.0,0.0,53,0.00,,SKC,0.00,VWS V13.01,2013-04-08 23:04:00,
2013-04-08 19:09:00,47.4,31.1,30.18,ENE,68,0.0,0.0,53,0.00,,SKC,0.00,VWS V13.01,2013-04-08 23:09:00,
2013-04-08 19:14:00,47.3,31.0,30.19,ENE,68,0.0,0.0,53,0.00,,SKC,0.00,VWS V13.01,2013-04-08 23:14:00,
2013-04-08 19:19:00,47.1,30.9,30.19,ENE,68,0.0,0.0,53,0.00,,SKC,0.00,VWS V13.01,2013-04-08 23:19:00,
2013-04-08 19:24:00,46.9,30.7,30.19,ENE,68,0.0,0.0,53,0.00,,SKC,0.00,VWS V13.01,2013-04-08 23:24:00,
2013-04-08 19:29:00,46.7,31.0,30.19,ENE,68,0.0,0.0,54,0.00,,SKC,0.00,VWS V13.01,2013-04-08 23:29:00,
2013-04-08 19:34:00,46.4,30.7,30.19,ENE,68,0.0,0.0,54,0.00,,SKC,0.00,VWS V13.01,2013-04-08 23:34:00,
2013-04-08 19:39:00,46.2,30.9,30.19,ENE,68,0.0,0.0,55,0.00,,SKC,0.00,VWS V13.01,2013-04-08 23:39:00,
2013-04-08 19:44:00,46.0,30.8,30.19,ENE,68,0.0,0.0,55,0.00,,SKC,0.00,VWS V13.01,2013-04-08 23:44:00,
2013-04-08 19:49:00,45.6,30.4,30.19,ENE,68,0.0,0.0,55,0.00,,SKC,0.00,VWS V13.01,2013-04-08 23:49:00,
2013-04-08 19:54:00,45.5,30.3,30.20,ENE,68,0.0,0.0,55,0.00,,SKC,0.00,VWS V13.01,2013-04-08 23:54:00,
2013-04-08 19:59:00,45.3,30.1,30.19,ENE,68,0.0,0.0,55,0.00,,SKC,0.00,VWS V13.01,2013-04-08 23:59:00,
2013-04-08 20:04:00,45.1,30.4,30.19,ENE,68,0.0,0.0,56,0.00,,SKC,0.00,VWS V13.01,2013-04-09 00:04:00,
2013-04-08 20:09:00,44.9,30.2,30.19,ENE,68,0.0,0.0,56,0.00,,SKC,0.00,VWS V13.01,2013-04-09 00:09:00,
2013-04-08 20:14:00,44.6,30.3,30.19,ENE,68,0.0,0.0,57,0.00,,SKC,0.00,VWS V13.01,2013-04-09 00:14:00,
2013-04-08 20:19:00,44.4,30.1,30.19,ENE,68,0.0,0.0,57,0.00,,SKC,0.00,VWS V13.01,2013-04-09 00:19:00,
2013-04-08 20:24:00,43.8,29.6,30.19,ENE,68,0.0,0.0,57,0.00,,SKC,0.00,VWS V13.01,2013-04-09 00:24:00,
2013-04-08 20:30:00,43.7,29.9,30.19,ENE,68,0.0,0.0,58,0.00,,SKC,0.00,VWS V13.01,2013-04-09 00:30:00,
2013-04-08 20:35:00,43.5,29.7,30.19,ENE,68,0.0,0.0,58,0.00,,SKC,0.00,VWS V13.01,2013-04-09 00:35:00,
2013-04-08 20:40:00,43.5,29.7,30.19,ENE,68,0.0,0.0,58,0.00,,SKC,0.00,VWS V13.01,2013-04-09 00:40:00,
2013-04-08 20:45:00,43.3,30.0,30.19,ENE,68,0.0,0.0,59,0.00,,SKC,0.00,VWS V13.01,2013-04-09 00:45:00,
2013-04-08 20:50:00,43.1,29.8,30.19,ENE,68,0.0,0.0,59,0.00,,SKC,0.00,VWS V13.01,2013-04-09 00:50:00,
2013-04-08 20:55:00,42.9,29.6,30.19,ENE,68,0.0,0.0,59,0.00,,SKC,0.00,VWS V13.01,2013-04-09 00:55:00,
2013-04-08 21:00:00,42.9,29.6,30.19,ENE,68,0.0,0.0,59,0.00,,SKC,0.00,VWS V13.01,2013-04-09 01:00:00,
2013-04-08 21:05:00,42.6,30.1,30.19,ENE,68,0.0,0.0,61,0.00,,SKC,0.00,VWS V13.01,2013-04-09 01:05:00,
2013-04-08 21:10:00,42.4,29.9,30.19,ENE,68,0.0,0.0,61,0.00,,SKC,0.00,VWS V13.01,2013-04-09 01:10:00,
2013-04-08 21:15:00,42.4,29.9,30.19,ENE,68,0.0,0.0,61,0.00,,SKC,0.00,VWS V13.01,2013-04-09 01:15:00,
2013-04-08 21:20:00,42.4,30.3,30.19,ENE,68,0.0,0.0,62,0.00,,SKC,0.00,VWS V13.01,2013-04-09 01:20:00,
2013-04-08 21:25:00,42.4,30.3,30.18,ENE,68,0.0,0.0,62,0.00,,SKC,0.00,VWS V13.01,2013-04-09 01:25:00,
2013-04-08 21:30:00,42.6,30.5,30.18,ENE,68,0.0,0.0,62,0.00,,SKC,0.00,VWS V13.01,2013-04-09 01:30:00,
2013-04-08 21:35:00,42.6,30.5,30.18,ENE,68,0.0,0.0,62,0.00,,SKC,0.00,VWS V13.01,2013-04-09 01:35:00,
2013-04-08 21:40:00,42.6,30.5,30.18,ENE,68,0.0,0.0,62,0.00,,SKC,0.00,VWS V13.01,2013-04-09 01:40:00,
2013-04-08 21:45:00,42.6,30.5,30.18,ENE,68,0.0,0.0,62,0.00,,SKC,0.00,VWS V13.01,2013-04-09 01:45:00,
2013-04-08 21:50:00,42.6,30.5,30.18,ENE,68,0.0,0.0,62,0.00,,SKC,0.00,VWS V13.01,2013-04-09 01:50:00,
2013-04-08 21:55:00,42.6,30.5,30.17,ENE,68,0.0,0.0,62,0.00,,SKC,0.00,VWS V13.01,2013-04-09 01:55:00,
2013-04-08 22:00:00,42.6,30.9,30.16,ENE,68,0.0,0.0,63,0.00,,SKC,0.00,VWS V13.01,2013-04-09 02:00:00,
2013-04-08 22:05:00,42.6,30.9,30.16,ENE,68,0.0,0.0,63,0.00,,SKC,0.00,VWS V13.01,2013-04-09 02:05:00,
2013-04-08 22:10:00,42.6,30.9,30.16,ENE,68,0.0,0.0,63,0.00,,SKC,0.00,VWS V13.01,2013-04-09 02:10:00,
2013-04-08 22:15:00,42.8,31.5,30.16,ENE,68,0.0,0.0,64,0.00,,SKC,0.00,VWS V13.01,2013-04-09 02:15:00,
2013-04-08 22:20:00,42.8,31.5,30.15,ENE,68,0.0,0.0,64,0.00,,SKC,0.00,VWS V13.01,2013-04-09 02:20:00,
2013-04-08 22:25:00,42.6,31.3,30.15,ENE,68,0.0,0.0,64,0.00,,SKC,0.00,VWS V13.01,2013-04-09 02:25:00,
2013-04-08 22:30:00,42.6,31.3,30.15,ENE,68,0.0,0.0,64,0.00,,SKC,0.00,VWS V13.01,2013-04-09 02:30:00,
2013-04-08 22:35:00,42.8,31.5,30.15,ENE,68,0.0,0.0,64,0.00,,SKC,0.00,VWS V13.01,2013-04-09 02:35:00,
2013-04-08 22:41:00,42.9,31.6,30.15,ENE,68,0.0,0.0,64,0.00,,SKC,0.00,VWS V13.01,2013-04-09 02:41:00,
2013-04-08 22:46:00,42.9,31.6,30.14,ENE,68,0.0,0.0,64,0.00,,SKC,0.00,VWS V13.01,2013-04-09 02:46:00,
2013-04-08 22:51:00,42.9,31.6,30.14,ENE,68,0.0,0.0,64,0.00,,SKC,0.00,VWS V13.01,2013-04-09 02:51:00,
2013-04-08 22:56:00,42.9,31.6,30.14,ENE,68,0.0,0.0,64,0.00,,SKC,0.00,VWS V13.01,2013-04-09 02:56:00,
2013-04-08 23:01:00,43.1,31.8,30.13,ENE,68,0.0,0.0,64,0.00,,SKC,0.00,VWS V13.01,2013-04-09 03:01:00,
2013-04-08 23:06:00,43.1,31.8,30.12,ENE,68,0.0,0.0,64,0.00,,SKC,0.00,VWS V13.01,2013-04-09 03:06:00,
2013-04-08 23:11:00,43.1,31.8,30.12,ENE,68,0.0,0.0,64,0.00,,SKC,0.00,VWS V13.01,2013-04-09 03:11:00,
2013-04-08 23:16:00,43.3,32.0,30.11,ENE,68,0.0,0.0,64,0.00,,SKC,0.00,VWS V13.01,2013-04-09 03:16:00,
2013-04-08 23:21:00,43.1,31.8,30.11,ENE,68,0.0,0.0,64,0.00,,SKC,0.00,VWS V13.01,2013-04-09 03:21:00,
2013-04-08 23:26:00,43.3,32.0,30.12,ENE,68,0.0,0.0,64,0.00,,SKC,0.00,VWS V13.01,2013-04-09 03:26:00,
2013-04-08 23:31:00,43.3,32.0,30.12,ENE,68,0.0,0.0,64,0.00,,SKC,0.00,VWS V13.01,2013-04-09 03:31:00,
2013-04-08 23:36:00,43.3,32.3,30.11,ENE,68,0.0,0.0,65,0.00,,SKC,0.00,VWS V13.01,2013-04-09 03:36:00,
2013-04-08 23:41:00,43.3,32.3,30.12,ENE,68,0.0,0.0,65,0.00,,SKC,0.00,VWS V13.01,2013-04-09 03:41:00,
2013-04-08 23:46:00,43.3,32.7,30.12,ENE,68,0.0,0.0,66,0.00,,SKC,0.00,VWS V13.01,2013-04-09 03:46:00,
2013-04-08 23:51:00,43.1,32.9,30.10,East,91,0.0,0.0,67,0.00,,SKC,0.00,VWS V13.01,2013-04-09 03:51:00,
2013-04-08 23:56:00,43.1,32.9,30.09,East,91,0.0,0.0,67,0.00,,SKC,0.00,VWS V13.01,2013-04-09 03:56:00,